| time (UTC) | temp F | wind direction | speed MPH | gust MPH | rain 1hr in | rain 24hr in | rain mn in | humidity % | barometer mb |
| 20260509221302 | 89 | 285 | 3.0 | 6.0 | 0.00 | 0.00 | 0.00 | 65 | 1001.8 |
| 20260509221203 | 89 | 288 | 4.0 | 6.0 | 0.00 | 0.00 | 0.00 | 65 | 1001.8 |
| 20260509221102 | 89 | 343 | 4.0 | 6.0 | 0.00 | 0.00 | 0.00 | 65 | 1001.8 |
| 20260509221004 | 89 | 347 | 4.0 | 6.0 | 0.00 | 0.00 | 0.00 | 65 | 1001.8 |
| 20260509220902 | 89 | 333 | 4.0 | 5.0 | 0.00 | 0.00 | 0.00 | 65 | 1001.7 |
| 20260509220803 | 89 | 283 | 4.0 | 5.0 | 0.00 | 0.00 | 0.00 | 64 | 1001.8 |
| 20260509220704 | 90 | 306 | 4.0 | 5.0 | 0.00 | 0.00 | 0.00 | 65 | 1001.8 |
| 20260509220608 | 90 | 317 | 3.0 | 5.0 | 0.00 | 0.00 | 0.00 | 66 | 1001.8 |
| 20260509220504 | 90 | 319 | 2.0 | 4.0 | 0.00 | 0.00 | 0.00 | 66 | 1001.9 |
| 20260509220402 | 90 | 326 | 2.0 | 4.0 | 0.00 | 0.00 | 0.00 | 66 | 1001.9 |
| 20260509220303 | 90 | 326 | 1.0 | 4.0 | 0.00 | 0.00 | 0.00 | 64 | 1001.8 |
| 20260509220204 | 89 | 338 | 0.0 | 5.0 | 0.00 | 0.00 | 0.00 | 65 | 1001.9 |
| 20260509220002 | 89 | 338 | 1.0 | 5.0 | 0.00 | 0.00 | 0.00 | 64 | 1001.8 |
| 20260509215904 | 89 | 338 | 1.0 | 5.0 | 0.00 | 0.00 | 0.00 | 64 | 1001.8 |
| 20260509215802 | 89 | 338 | 2.0 | 5.0 | 0.00 | 0.00 | 0.00 | 64 | 1001.9 |
| 20260509215702 | 89 | 338 | 3.0 | 5.0 | 0.00 | 0.00 | 0.00 | 65 | 1001.8 |
| 20260509215603 | 89 | 340 | 2.0 | 6.0 | 0.00 | 0.00 | 0.00 | 65 | 1001.8 |
| 20260509215504 | 89 | 355 | 2.0 | 6.0 | 0.00 | 0.00 | 0.00 | 65 | 1001.8 |
| 20260509215402 | 89 | 355 | 4.0 | 6.0 | 0.00 | 0.00 | 0.00 | 65 | 1001.8 |
| 20260509215306 | 89 | 355 | 4.0 | 6.0 | 0.00 | 0.00 | 0.00 | 66 | 1001.9 |
| 20260509215202 | 89 | 355 | 3.0 | 6.0 | 0.00 | 0.00 | 0.00 | 66 | 1001.8 |
| 20260509215102 | 89 | 358 | 2.0 | 6.0 | 0.00 | 0.00 | 0.00 | 66 | 1001.9 |
| 20260509215004 | 89 | 281 | 2.0 | 6.0 | 0.00 | 0.00 | 0.00 | 66 | 1001.8 |
| 20260509214904 | 89 | 281 | 2.0 | 6.0 | 0.00 | 0.00 | 0.00 | 65 | 1001.8 |
| 20260509214802 | 89 | 281 | 3.0 | 6.0 | 0.00 | 0.00 | 0.00 | 65 | 1001.8 |
| 20260509214703 | 89 | 282 | 4.0 | 6.0 | 0.00 | 0.00 | 0.00 | 65 | 1001.8 |
| 20260509214603 | 89 | 275 | 2.0 | 5.0 | 0.00 | 0.00 | 0.00 | 65 | 1001.8 |
| 20260509214505 | 89 | 268 | 1.0 | 5.0 | 0.00 | 0.00 | 0.00 | 65 | 1001.8 |
| 20260509214404 | 89 | 268 | 2.0 | 6.0 | 0.00 | 0.00 | 0.00 | 65 | 1001.8 |
| 20260509214302 | 89 | 268 | 2.0 | 6.0 | 0.00 | 0.00 | 0.00 | 65 | 1001.8 |
| 20260509214201 | 89 | 250 | 0.0 | 6.0 | 0.00 | 0.00 | 0.00 | 66 | 1001.9 |
| 20260509214103 | 89 | 248 | 0.0 | 6.0 | 0.00 | 0.00 | 0.00 | 66 | 1001.8 |
| 20260509214002 | 89 | 248 | 1.0 | 6.0 | 0.00 | 0.00 | 0.00 | 67 | 1001.8 |
| 20260509213904 | 89 | 248 | 2.0 | 6.0 | 0.00 | 0.00 | 0.00 | 68 | 1001.8 |
| 20260509213802 | 89 | 248 | 4.0 | 6.0 | 0.00 | 0.00 | 0.00 | 67 | 1001.8 |
| 20260509213703 | 89 | 266 | 4.0 | 6.0 | 0.00 | 0.00 | 0.00 | 67 | 1001.8 |
| 20260509213602 | 89 | 264 | 4.0 | 6.0 | 0.00 | 0.00 | 0.00 | 66 | 1001.8 |
| 20260509213503 | 89 | 264 | 4.0 | 6.0 | 0.00 | 0.00 | 0.00 | 66 | 1001.8 |
| 20260509213403 | 89 | 261 | 1.0 | 5.0 | 0.00 | 0.00 | 0.00 | 68 | 1001.8 |
| 20260509213302 | 89 | 286 | 0.0 | 2.0 | 0.00 | 0.00 | 0.00 | 68 | 1001.8 |
| 20260509213202 | 89 | 286 | 0.0 | 2.0 | 0.00 | 0.00 | 0.00 | 66 | 1001.9 |
| 20260509213104 | 89 | 285 | 0.0 | 2.0 | 0.00 | 0.00 | 0.00 | 66 | 1001.9 |
| 20260509213002 | 89 | 283 | 0.0 | 2.0 | 0.00 | 0.00 | 0.00 | 66 | 1001.9 |
| 20260509212902 | 89 | 283 | 0.0 | 2.0 | 0.00 | 0.00 | 0.00 | 66 | 1001.8 |
| 20260509212804 | 89 | 283 | 0.0 | 2.0 | 0.00 | 0.00 | 0.00 | 66 | 1001.9 |
| 20260509212702 | 89 | 283 | 0.0 | 2.0 | 0.00 | 0.00 | 0.00 | 66 | 1001.8 |
| 20260509212601 | 89 | 283 | 0.0 | 2.0 | 0.00 | 0.00 | 0.00 | 66 | 1001.9 |
| 20260509212503 | 89 | 283 | 1.0 | 3.0 | 0.00 | 0.00 | 0.00 | 67 | 1001.9 |
| 20260509212404 | 89 | 283 | 0.0 | 5.0 | 0.00 | 0.00 | 0.00 | 67 | 1001.9 |
| 20260509212306 | 89 | 283 | 0.0 | 5.0 | 0.00 | 0.00 | 0.00 | 67 | 1002.0 |
| 20260509212204 | 89 | 283 | 0.0 | 5.0 | 0.00 | 0.00 | 0.00 | 66 | 1002.0 |
| 20260509212104 | 88 | 283 | 1.0 | 5.0 | 0.00 | 0.00 | 0.00 | 68 | 1002.0 |
| 20260509212002 | 88 | 283 | 1.0 | 5.0 | 0.00 | 0.00 | 0.00 | 67 | 1001.9 |
| 20260509211903 | 88 | 283 | 2.0 | 5.0 | 0.00 | 0.00 | 0.00 | 67 | 1002.0 |
| 20260509211803 | 88 | 288 | 2.0 | 5.0 | 0.00 | 0.00 | 0.00 | 66 | 1002.0 |
| 20260509211702 | 88 | 288 | 2.0 | 5.0 | 0.00 | 0.00 | 0.00 | 68 | 1002.0 |
| 20260509211603 | 88 | 288 | 3.0 | 5.0 | 0.00 | 0.00 | 0.00 | 68 | 1002.0 |
| 20260509211504 | 88 | 288 | 3.0 | 5.0 | 0.00 | 0.00 | 0.00 | 68 | 1002.0 |
| 20260509211402 | 88 | 286 | 2.0 | 4.0 | 0.00 | 0.00 | 0.00 | 68 | 1002.0 |
| 20260509211303 | 88 | 288 | 2.0 | 4.0 | 0.00 | 0.00 | 0.00 | 69 | 1002.0 |
| 20260509211203 | 88 | 288 | 2.0 | 4.0 | 0.00 | 0.00 | 0.00 | 67 | 1002.0 |
| 20260509211103 | 88 | 290 | 2.0 | 4.0 | 0.00 | 0.00 | 0.00 | 67 | 1002.0 |
| 20260509211002 | 88 | 290 | 2.0 | 4.0 | 0.00 | 0.00 | 0.00 | 67 | 1002.0 |
| 20260509210903 | 88 | 290 | 3.0 | 4.0 | 0.00 | 0.00 | 0.00 | 67 | 1002.0 |
| 20260509210804 | 88 | 290 | 3.0 | 4.0 | 0.00 | 0.00 | 0.00 | 67 | 1002.0 |
| 20260509210703 | 88 | 319 | 3.0 | 4.0 | 0.00 | 0.00 | 0.00 | 67 | 1002.1 |
| 20260509210603 | 88 | 0 | 1.0 | 4.0 | 0.00 | 0.00 | 0.00 | 68 | 1002.1 |
| 20260509210504 | 88 | 0 | 1.0 | 5.0 | 0.00 | 0.00 | 0.00 | 68 | 1002.1 |
| 20260509210403 | 88 | 0 | 0.0 | 5.0 | 0.00 | 0.00 | 0.00 | 67 | 1002.1 |
| 20260509210304 | 88 | 0 | 1.0 | 5.0 | 0.00 | 0.00 | 0.00 | 67 | 1002.2 |
| 20260509210202 | 88 | 0 | 0.0 | 5.0 | 0.00 | 0.00 | 0.00 | 67 | 1002.2 |
| 20260509210002 | 88 | 0 | 1.0 | 6.0 | 0.00 | 0.00 | 0.00 | 68 | 1002.1 |
| 20260509205902 | 88 | 0 | 2.0 | 6.0 | 0.00 | 0.00 | 0.00 | 67 | 1002.2 |
| 20260509205804 | 87 | 0 | 2.0 | 6.0 | 0.00 | 0.00 | 0.00 | 68 | 1002.2 |
| 20260509205702 | 87 | 350 | 2.0 | 6.0 | 0.00 | 0.00 | 0.00 | 68 | 1002.2 |
| 20260509205602 | 87 | 350 | 3.0 | 6.0 | 0.00 | 0.00 | 0.00 | 68 | 1002.2 |
| 20260509205505 | 87 | 300 | 2.0 | 6.0 | 0.00 | 0.00 | 0.00 | 68 | 1002.2 |
| 20260509205403 | 87 | 300 | 2.0 | 6.0 | 0.00 | 0.00 | 0.00 | 68 | 1002.2 |
| 20260509205306 | 87 | 300 | 2.0 | 6.0 | 0.00 | 0.00 | 0.00 | 69 | 1002.3 |
| 20260509205202 | 87 | 302 | 3.0 | 6.0 | 0.00 | 0.00 | 0.00 | 68 | 1002.3 |
| 20260509205103 | 87 | 300 | 4.0 | 6.0 | 0.00 | 0.00 | 0.00 | 70 | 1002.3 |
| 20260509205004 | 87 | 303 | 4.0 | 6.0 | 0.00 | 0.00 | 0.00 | 70 | 1002.4 |
| 20260509204903 | 87 | 306 | 4.0 | 6.0 | 0.00 | 0.00 | 0.00 | 69 | 1002.4 |
| 20260509204803 | 88 | 326 | 4.0 | 6.0 | 0.00 | 0.00 | 0.00 | 70 | 1002.4 |
| 20260509204702 | 88 | 327 | 4.0 | 6.0 | 0.00 | 0.00 | 0.00 | 70 | 1002.5 |
| 20260509204603 | 87 | 333 | 3.0 | 6.0 | 0.00 | 0.00 | 0.00 | 70 | 1002.5 |
| 20260509204505 | 87 | 289 | 2.0 | 6.0 | 0.00 | 0.00 | 0.00 | 69 | 1002.5 |
| 20260509204402 | 87 | 289 | 2.0 | 6.0 | 0.00 | 0.00 | 0.00 | 69 | 1002.5 |
| 20260509204304 | 87 | 292 | 3.0 | 6.0 | 0.00 | 0.00 | 0.00 | 68 | 1002.5 |
| 20260509204204 | 87 | 313 | 4.0 | 6.0 | 0.00 | 0.00 | 0.00 | 68 | 1002.5 |
| 20260509204103 | 87 | 314 | 5.0 | 6.0 | 0.00 | 0.00 | 0.00 | 69 | 1002.5 |
| 20260509204002 | 87 | 354 | 4.0 | 6.0 | 0.00 | 0.00 | 0.00 | 70 | 1002.5 |
| 20260509203903 | 87 | 340 | 4.0 | 6.0 | 0.00 | 0.00 | 0.00 | 69 | 1002.6 |
| 20260509203804 | 87 | 331 | 4.0 | 6.0 | 0.00 | 0.00 | 0.00 | 69 | 1002.5 |
| 20260509203703 | 87 | 28 | 2.0 | 5.0 | 0.00 | 0.00 | 0.00 | 69 | 1002.6 |
| 20260509203604 | 87 | 32 | 2.0 | 4.0 | 0.00 | 0.00 | 0.00 | 69 | 1002.7 |
| 20260509203503 | 87 | 25 | 2.0 | 4.0 | 0.00 | 0.00 | 0.00 | 68 | 1002.6 |
| 20260509203403 | 87 | 25 | 2.0 | 4.0 | 0.00 | 0.00 | 0.00 | 70 | 1002.6 |
| 20260509203303 | 87 | 23 | 3.0 | 4.0 | 0.00 | 0.00 | 0.00 | 68 | 1002.6 |
| 20260509203202 | 87 | 23 | 3.0 | 5.0 | 0.00 | 0.00 | 0.00 | 69 | 1002.6 |
| 20260509203102 | 87 | 23 | 2.0 | 6.0 | 0.00 | 0.00 | 0.00 | 68 | 1002.7 |
| 20260509203002 | 87 | 3 | 0.0 | 6.0 | 0.00 | 0.00 | 0.00 | 68 | 1002.7 |
| 20260509202902 | 87 | 350 | 0.0 | 6.0 | 0.00 | 0.00 | 0.00 | 68 | 1002.7 |
| 20260509202803 | 87 | 350 | 0.0 | 6.0 | 0.00 | 0.00 | 0.00 | 68 | 1002.6 |
| 20260509202703 | 87 | 350 | 0.0 | 6.0 | 0.00 | 0.00 | 0.00 | 69 | 1002.7 |
| 20260509202602 | 87 | 348 | 1.0 | 6.0 | 0.00 | 0.00 | 0.00 | 69 | 1002.7 |
| 20260509202503 | 87 | 348 | 2.0 | 6.0 | 0.00 | 0.00 | 0.00 | 70 | 1002.8 |
| 20260509202404 | 87 | 351 | 3.0 | 6.0 | 0.00 | 0.00 | 0.00 | 70 | 1002.7 |
| 20260509202306 | 87 | 341 | 4.0 | 6.0 | 0.00 | 0.00 | 0.00 | 71 | 1002.7 |
| 20260509202204 | 87 | 344 | 2.0 | 7.0 | 0.00 | 0.00 | 0.00 | 71 | 1002.7 |
| 20260509202103 | 86 | 357 | 2.0 | 9.0 | 0.00 | 0.00 | 0.00 | 72 | 1002.8 |
| 20260509202006 | 86 | 353 | 3.0 | 9.0 | 0.00 | 0.00 | 0.00 | 72 | 1002.7 |
| 20260509201902 | 86 | 337 | 3.0 | 9.0 | 0.00 | 0.00 | 0.00 | 72 | 1002.8 |
| 20260509201802 | 86 | 296 | 3.0 | 9.0 | 0.00 | 0.00 | 0.00 | 70 | 1002.7 |
| 20260509201703 | 86 | 327 | 4.0 | 9.0 | 0.00 | 0.00 | 0.00 | 70 | 1002.8 |
| 20260509201604 | 87 | 327 | 5.0 | 9.0 | 0.00 | 0.00 | 0.00 | 71 | 1002.7 |
| 20260509201503 | 87 | 336 | 4.0 | 9.0 | 0.00 | 0.00 | 0.00 | 70 | 1002.7 |
| 20260509201402 | 87 | 0 | 4.0 | 9.0 | 0.00 | 0.00 | 0.00 | 70 | 1002.8 |
| 20260509201303 | 87 | 0 | 5.0 | 9.0 | 0.00 | 0.00 | 0.00 | 70 | 1002.8 |
| 20260509201203 | 87 | 351 | 4.0 | 9.0 | 0.00 | 0.00 | 0.00 | 71 | 1002.8 |
| 20260509201102 | 87 | 6 | 3.0 | 9.0 | 0.00 | 0.00 | 0.00 | 70 | 1002.8 |
| 20260509201003 | 87 | 7 | 2.0 | 9.0 | 0.00 | 0.00 | 0.00 | 72 | 1002.9 |
| 20260509200904 | 87 | 4 | 3.0 | 9.0 | 0.00 | 0.00 | 0.00 | 72 | 1002.9 |
| 20260509200803 | 87 | 0 | 5.0 | 9.0 | 0.00 | 0.00 | 0.00 | 71 | 1002.9 |
| 20260509200704 | 87 | 344 | 5.0 | 9.0 | 0.00 | 0.00 | 0.00 | 71 | 1002.8 |
| 20260509200602 | 87 | 319 | 5.0 | 9.0 | 0.00 | 0.00 | 0.00 | 71 | 1002.8 |
| 20260509200501 | 86 | 271 | 4.0 | 9.0 | 0.00 | 0.00 | 0.00 | 71 | 1002.9 |
| 20260509200401 | 86 | 238 | 3.0 | 6.0 | 0.00 | 0.00 | 0.00 | 71 | 1002.9 |
| 20260509200302 | 87 | 289 | 4.0 | 6.0 | 0.00 | 0.00 | 0.00 | 71 | 1002.8 |
| 20260509200203 | 87 | 298 | 3.0 | 6.0 | 0.00 | 0.00 | 0.00 | 72 | 1002.9 |
| 20260509200104 | 86 | 285 | 3.0 | 6.0 | 0.00 | 0.00 | 0.00 | 72 | 1003.0 |
| 20260509200005 | 86 | 302 | 4.0 | 6.0 | 0.00 | 0.00 | 0.00 | 71 | 1002.9 |
| 20260509195902 | 86 | 302 | 4.0 | 6.0 | 0.00 | 0.00 | 0.00 | 71 | 1003.0 |
| 20260509195803 | 86 | 298 | 4.0 | 6.0 | 0.00 | 0.00 | 0.00 | 71 | 1003.0 |
| 20260509195702 | 86 | 292 | 4.0 | 6.0 | 0.00 | 0.00 | 0.00 | 72 | 1003.1 |
| 20260509195604 | 86 | 303 | 3.0 | 6.0 | 0.00 | 0.00 | 0.00 | 70 | 1003.1 |
| 20260509195505 | 86 | 310 | 1.0 | 6.0 | 0.00 | 0.00 | 0.00 | 71 | 1003.1 |
| 20260509195402 | 86 | 276 | 0.0 | 6.0 | 0.00 | 0.00 | 0.00 | 72 | 1003.0 |
| 20260509195306 | 86 | 278 | 4.0 | 6.0 | 0.00 | 0.00 | 0.00 | 73 | 1003.1 |
| 20260509195203 | 86 | 278 | 5.0 | 6.0 | 0.00 | 0.00 | 0.00 | 73 | 1003.1 |
| 20260509195103 | 86 | 281 | 5.0 | 6.0 | 0.00 | 0.00 | 0.00 | 71 | 1003.1 |
| 20260509195004 | 86 | 295 | 5.0 | 6.0 | 0.00 | 0.00 | 0.00 | 71 | 1003.0 |
| 20260509194902 | 86 | 299 | 5.0 | 6.0 | 0.00 | 0.00 | 0.00 | 71 | 1003.1 |
| 20260509194804 | 86 | 298 | 5.0 | 6.0 | 0.00 | 0.00 | 0.00 | 71 | 1003.0 |
| 20260509194704 | 86 | 312 | 5.0 | 6.0 | 0.00 | 0.00 | 0.00 | 72 | 1003.1 |
| 20260509194602 | 86 | 309 | 4.0 | 6.0 | 0.00 | 0.00 | 0.00 | 72 | 1003.1 |
| 20260509194504 | 86 | 321 | 3.0 | 6.0 | 0.00 | 0.00 | 0.00 | 72 | 1003.0 |
| 20260509194403 | 86 | 262 | 3.0 | 6.0 | 0.00 | 0.00 | 0.00 | 71 | 1003.1 |
| 20260509194305 | 86 | 261 | 4.0 | 6.0 | 0.00 | 0.00 | 0.00 | 71 | 1003.1 |
| 20260509194201 | 86 | 258 | 4.0 | 7.0 | 0.00 | 0.00 | 0.00 | 71 | 1003.1 |
| 20260509194103 | 86 | 290 | 4.0 | 7.0 | 0.00 | 0.00 | 0.00 | 71 | 1003.1 |
| 20260509194004 | 86 | 285 | 4.0 | 7.0 | 0.00 | 0.00 | 0.00 | 71 | 1003.1 |
| 20260509193904 | 86 | 279 | 4.0 | 7.0 | 0.00 | 0.00 | 0.00 | 71 | 1003.1 |
| 20260509193803 | 86 | 285 | 3.0 | 7.0 | 0.00 | 0.00 | 0.00 | 72 | 1003.1 |
| 20260509193702 | 86 | 358 | 2.0 | 7.0 | 0.00 | 0.00 | 0.00 | 71 | 1003.1 |
| 20260509193603 | 86 | 0 | 2.0 | 7.0 | 0.00 | 0.00 | 0.00 | 71 | 1003.0 |
| 20260509193502 | 86 | 0 | 4.0 | 7.0 | 0.00 | 0.00 | 0.00 | 71 | 1003.2 |
| 20260509193404 | 86 | 340 | 5.0 | 10.0 | 0.00 | 0.00 | 0.00 | 71 | 1003.2 |
| 20260509193304 | 86 | 317 | 6.0 | 10.0 | 0.00 | 0.00 | 0.00 | 71 | 1003.2 |
| 20260509193201 | 86 | 326 | 4.0 | 10.0 | 0.00 | 0.00 | 0.00 | 72 | 1003.1 |
| 20260509193103 | 86 | 262 | 4.0 | 10.0 | 0.00 | 0.00 | 0.00 | 72 | 1003.2 |
| 20260509193005 | 86 | 303 | 4.0 | 10.0 | 0.00 | 0.00 | 0.00 | 72 | 1003.2 |
| 20260509192902 | 86 | 285 | 4.0 | 10.0 | 0.00 | 0.00 | 0.00 | 71 | 1003.3 |
| 20260509192802 | 86 | 296 | 4.0 | 10.0 | 0.00 | 0.00 | 0.00 | 71 | 1003.3 |
| 20260509192658 | 86 | 283 | 5.0 | 10.0 | 0.00 | 0.00 | 0.00 | 71 | 1003.3 |
| 20260509192553 | 86 | 298 | 7.0 | 10.0 | 0.00 | 0.00 | 0.00 | 70 | 1003.4 |
| 20260509192441 | 86 | 285 | 5.0 | 10.0 | 0.00 | 0.00 | 0.00 | 72 | 1003.3 |
| 20260509192342 | 86 | 296 | 2.0 | 7.0 | 0.00 | 0.00 | 0.00 | 70 | 1003.3 |
| 20260509192239 | 86 | 295 | 3.0 | 7.0 | 0.00 | 0.00 | 0.00 | 70 | 1003.2 |
| 20260509192141 | 86 | 295 | 5.0 | 7.0 | 0.00 | 0.00 | 0.00 | 70 | 1003.3 |
| 20260509192040 | 86 | 293 | 4.0 | 7.0 | 0.00 | 0.00 | 0.00 | 71 | 1003.3 |
| 20260509191940 | 86 | 288 | 2.0 | 6.0 | 0.00 | 0.00 | 0.00 | 72 | 1003.3 |
| 20260509191841 | 86 | 0 | 2.0 | 6.0 | 0.00 | 0.00 | 0.00 | 72 | 1003.4 |
| 20260509191741 | 86 | 0 | 3.0 | 6.0 | 0.00 | 0.00 | 0.00 | 71 | 1003.3 |
| 20260509191639 | 86 | 353 | 2.0 | 6.0 | 0.00 | 0.00 | 0.00 | 71 | 1003.4 |
| 20260509191539 | 85 | 314 | 1.0 | 6.0 | 0.00 | 0.00 | 0.00 | 71 | 1003.4 |
| 20260509191439 | 85 | 314 | 2.0 | 6.0 | 0.00 | 0.00 | 0.00 | 71 | 1003.4 |
| 20260509191340 | 85 | 314 | 3.0 | 6.0 | 0.00 | 0.00 | 0.00 | 71 | 1003.4 |
| 20260509191239 | 86 | 329 | 4.0 | 6.0 | 0.00 | 0.00 | 0.00 | 72 | 1003.4 |
| 20260509191139 | 86 | 310 | 4.0 | 6.0 | 0.00 | 0.00 | 0.00 | 72 | 1003.4 |
| 20260509191039 | 86 | 305 | 3.0 | 5.0 | 0.00 | 0.00 | 0.00 | 72 | 1003.4 |
| 20260509190931 | 86 | 0 | 3.0 | 5.0 | 0.00 | 0.00 | 0.00 | 71 | 1003.4 |
| 20260509190832 | 86 | 281 | 3.0 | 5.0 | 0.00 | 0.00 | 0.00 | 70 | 1003.3 |
| 20260509190731 | 86 | 281 | 3.0 | 5.0 | 0.00 | 0.00 | 0.00 | 71 | 1003.3 |
| 20260509190631 | 86 | 269 | 4.0 | 5.0 | 0.00 | 0.00 | 0.00 | 71 | 1003.4 |
| 20260509190531 | 85 | 262 | 3.0 | 5.0 | 0.00 | 0.00 | 0.00 | 72 | 1003.5 |
| 20260509190433 | 85 | 295 | 2.0 | 5.0 | 0.00 | 0.00 | 0.00 | 72 | 1003.4 |
| 20260509190330 | 85 | 269 | 2.0 | 5.0 | 0.00 | 0.00 | 0.00 | 71 | 1003.4 |
| 20260509190231 | 85 | 283 | 4.0 | 5.0 | 0.00 | 0.00 | 0.00 | 73 | 1003.4 |
| 20260509190125 | 85 | 299 | 3.0 | 5.0 | 0.00 | 0.00 | 0.00 | 72 | 1003.5 |
| 20260509190025 | 85 | 39 | 1.0 | 5.0 | 0.00 | 0.00 | 0.00 | 74 | 1003.4 |
| 20260509185923 | 85 | 42 | 2.0 | 5.0 | 0.00 | 0.00 | 0.00 | 73 | 1003.4 |
| 20260509185814 | 84 | 42 | 3.0 | 5.0 | 0.00 | 0.00 | 0.00 | 73 | 1003.4 |
| 20260509185711 | 84 | 31 | 3.0 | 5.0 | 0.00 | 0.00 | 0.00 | 72 | 1003.4 |
| 20260509185610 | 85 | 8 | 3.0 | 4.0 | 0.00 | 0.00 | 0.00 | 72 | 1003.4 |
| 20260509185504 | 85 | 0 | 3.0 | 4.0 | 0.00 | 0.00 | 0.00 | 72 | 1003.5 |
| 20260509185403 | 85 | 337 | 3.0 | 5.0 | 0.00 | 0.00 | 0.00 | 72 | 1003.5 |
| 20260509185306 | 85 | 312 | 3.0 | 5.0 | 0.00 | 0.00 | 0.00 | 71 | 1003.4 |
| 20260509185203 | 85 | 102 | 2.0 | 5.0 | 0.00 | 0.00 | 0.00 | 71 | 1003.5 |
| 20260509185103 | 85 | 104 | 1.0 | 5.0 | 0.00 | 0.00 | 0.00 | 71 | 1003.4 |
| 20260509185002 | 85 | 104 | 0.0 | 5.0 | 0.00 | 0.00 | 0.00 | 71 | 1003.6 |
| 20260509184902 | 85 | 104 | 1.0 | 5.0 | 0.00 | 0.00 | 0.00 | 72 | 1003.5 |
| 20260509184804 | 85 | 104 | 1.0 | 5.0 | 0.00 | 0.00 | 0.00 | 72 | 1003.5 |
| 20260509184703 | 85 | 104 | 2.0 | 5.0 | 0.00 | 0.00 | 0.00 | 72 | 1003.5 |
| 20260509184603 | 85 | 104 | 3.0 | 5.0 | 0.00 | 0.00 | 0.00 | 72 | 1003.5 |
| 20260509184505 | 85 | 104 | 3.0 | 5.0 | 0.00 | 0.00 | 0.00 | 72 | 1003.4 |
| 20260509184403 | 85 | 106 | 2.0 | 5.0 | 0.00 | 0.00 | 0.00 | 70 | 1003.4 |
| 20260509184302 | 85 | 106 | 2.0 | 5.0 | 0.00 | 0.00 | 0.00 | 70 | 1003.5 |
| 20260509184202 | 85 | 106 | 3.0 | 5.0 | 0.00 | 0.00 | 0.00 | 70 | 1003.5 |
| 20260509184104 | 86 | 104 | 3.0 | 5.0 | 0.00 | 0.00 | 0.00 | 70 | 1003.6 |
| 20260509184004 | 86 | 102 | 2.0 | 5.0 | 0.00 | 0.00 | 0.00 | 71 | 1003.5 |
| 20260509183902 | 86 | 155 | 2.0 | 4.0 | 0.00 | 0.00 | 0.00 | 71 | 1003.6 |
| 20260509183802 | 86 | 157 | 1.0 | 4.0 | 0.00 | 0.00 | 0.00 | 71 | 1003.7 |
| 20260509183704 | 86 | 157 | 2.0 | 4.0 | 0.00 | 0.00 | 0.00 | 71 | 1003.7 |
| 20260509183603 | 86 | 157 | 2.0 | 4.0 | 0.00 | 0.00 | 0.00 | 71 | 1003.6 |
| 20260509183502 | 86 | 158 | 2.0 | 4.0 | 0.00 | 0.00 | 0.00 | 71 | 1003.8 |
| 20260509183403 | 86 | 158 | 1.0 | 4.0 | 0.00 | 0.00 | 0.00 | 71 | 1003.7 |
| 20260509183302 | 86 | 165 | 0.0 | 3.0 | 0.00 | 0.00 | 0.00 | 71 | 1003.7 |
| 20260509183202 | 86 | 165 | 1.0 | 3.0 | 0.00 | 0.00 | 0.00 | 72 | 1003.8 |
| 20260509183103 | 86 | 165 | 2.0 | 4.0 | 0.00 | 0.00 | 0.00 | 71 | 1003.7 |
| 20260509183002 | 86 | 166 | 1.0 | 4.0 | 0.00 | 0.00 | 0.00 | 71 | 1003.7 |
| 20260509182902 | 86 | 161 | 0.0 | 4.0 | 0.00 | 0.00 | 0.00 | 72 | 1003.7 |
| 20260509182802 | 85 | 159 | 0.0 | 4.0 | 0.00 | 0.00 | 0.00 | 71 | 1003.8 |
| 20260509182704 | 85 | 159 | 0.0 | 4.0 | 0.00 | 0.00 | 0.00 | 70 | 1003.8 |
| 20260509182604 | 86 | 159 | 1.0 | 4.0 | 0.00 | 0.00 | 0.00 | 71 | 1003.8 |
| 20260509182504 | 86 | 159 | 1.0 | 4.0 | 0.00 | 0.00 | 0.00 | 71 | 1003.8 |
| 20260509182402 | 86 | 238 | 1.0 | 4.0 | 0.00 | 0.00 | 0.00 | 71 | 1003.9 |
| 20260509182306 | 86 | 238 | 2.0 | 4.0 | 0.00 | 0.00 | 0.00 | 72 | 1004.0 |
| 20260509182204 | 86 | 238 | 3.0 | 4.0 | 0.00 | 0.00 | 0.00 | 72 | 1003.9 |
| 20260509182103 | 86 | 252 | 1.0 | 4.0 | 0.00 | 0.00 | 0.00 | 72 | 1003.9 |
| 20260509182002 | 86 | 145 | 1.0 | 3.0 | 0.00 | 0.00 | 0.00 | 72 | 1003.9 |
| 20260509181904 | 86 | 140 | 1.0 | 3.0 | 0.00 | 0.00 | 0.00 | 73 | 1003.9 |
| 20260509181802 | 85 | 135 | 0.0 | 3.0 | 0.00 | 0.00 | 0.00 | 72 | 1004.0 |
| 20260509181703 | 85 | 135 | 1.0 | 3.0 | 0.00 | 0.00 | 0.00 | 72 | 1003.9 |
| 20260509181604 | 85 | 134 | 1.0 | 3.0 | 0.00 | 0.00 | 0.00 | 72 | 1003.9 |
| 20260509181503 | 85 | 134 | 1.0 | 3.0 | 0.00 | 0.00 | 0.00 | 73 | 1003.9 |
| 20260509181404 | 85 | 133 | 0.0 | 4.0 | 0.00 | 0.00 | 0.00 | 72 | 1003.8 |
| 20260509181302 | 85 | 176 | 0.0 | 4.0 | 0.00 | 0.00 | 0.00 | 72 | 1003.9 |
| 20260509181204 | 85 | 176 | 0.0 | 4.0 | 0.00 | 0.00 | 0.00 | 72 | 1003.9 |
| 20260509181102 | 85 | 176 | 0.0 | 4.0 | 0.00 | 0.00 | 0.00 | 74 | 1003.9 |
| 20260509181002 | 85 | 176 | 0.0 | 4.0 | 0.00 | 0.00 | 0.00 | 74 | 1003.9 |
| 20260509180903 | 85 | 178 | 0.0 | 4.0 | 0.00 | 0.00 | 0.00 | 74 | 1004.0 |
| 20260509180802 | 85 | 178 | 0.0 | 4.0 | 0.00 | 0.00 | 0.00 | 74 | 1004.0 |
| 20260509180703 | 85 | 178 | 0.0 | 4.0 | 0.00 | 0.00 | 0.00 | 73 | 1004.1 |
| 20260509180604 | 85 | 178 | 2.0 | 4.0 | 0.00 | 0.00 | 0.00 | 73 | 1004.1 |
| 20260509180502 | 85 | 178 | 2.0 | 4.0 | 0.00 | 0.00 | 0.00 | 72 | 1004.1 |
| 20260509180403 | 85 | 164 | 1.0 | 4.0 | 0.00 | 0.00 | 0.00 | 72 | 1004.1 |
| 20260509180302 | 85 | 165 | 2.0 | 4.0 | 0.00 | 0.00 | 0.00 | 72 | 1004.2 |
| 20260509180203 | 85 | 165 | 2.0 | 4.0 | 0.00 | 0.00 | 0.00 | 73 | 1004.1 |
| 20260509180104 | 85 | 165 | 2.0 | 4.0 | 0.00 | 0.00 | 0.00 | 74 | 1004.3 |
| 20260509180004 | 85 | 166 | 2.0 | 4.0 | 0.00 | 0.00 | 0.00 | 74 | 1004.3 |
| 20260509175902 | 85 | 159 | 2.0 | 4.0 | 0.00 | 0.00 | 0.00 | 74 | 1004.3 |
| 20260509175802 | 85 | 165 | 2.0 | 4.0 | 0.00 | 0.00 | 0.00 | 74 | 1004.3 |
| 20260509175703 | 85 | 155 | 2.0 | 6.0 | 0.00 | 0.00 | 0.00 | 74 | 1004.2 |
| 20260509175602 | 85 | 155 | 2.0 | 6.0 | 0.00 | 0.00 | 0.00 | 74 | 1004.3 |
| 20260509175504 | 85 | 155 | 1.0 | 6.0 | 0.00 | 0.00 | 0.00 | 74 | 1004.3 |
| 20260509175402 | 84 | 154 | 1.0 | 6.0 | 0.00 | 0.00 | 0.00 | 74 | 1004.2 |
| 20260509175306 | 84 | 154 | 1.0 | 6.0 | 0.00 | 0.00 | 0.00 | 74 | 1004.3 |
| 20260509175202 | 84 | 154 | 2.0 | 6.0 | 0.00 | 0.00 | 0.00 | 73 | 1004.3 |
| 20260509175103 | 84 | 152 | 1.0 | 6.0 | 0.00 | 0.00 | 0.00 | 73 | 1004.3 |
| 20260509175004 | 84 | 152 | 2.0 | 6.0 | 0.00 | 0.00 | 0.00 | 74 | 1004.3 |
| 20260509174902 | 84 | 154 | 3.0 | 6.0 | 0.00 | 0.00 | 0.00 | 74 | 1004.5 |
| 20260509174803 | 84 | 149 | 4.0 | 6.0 | 0.00 | 0.00 | 0.00 | 74 | 1004.4 |
| 20260509174703 | 84 | 158 | 3.0 | 6.0 | 0.00 | 0.00 | 0.00 | 74 | 1004.4 |
| 20260509174603 | 83 | 154 | 2.0 | 6.0 | 0.00 | 0.00 | 0.00 | 75 | 1004.4 |
| 20260509174504 | 83 | 113 | 3.0 | 6.0 | 0.00 | 0.00 | 0.00 | 75 | 1004.5 |
| 20260509174404 | 83 | 113 | 3.0 | 7.0 | 0.00 | 0.00 | 0.00 | 75 | 1004.5 |
| 20260509174302 | 83 | 149 | 2.0 | 7.0 | 0.00 | 0.00 | 0.00 | 75 | 1004.5 |
| 20260509174202 | 83 | 154 | 3.0 | 7.0 | 0.00 | 0.00 | 0.00 | 75 | 1004.5 |
| 20260509174102 | 83 | 152 | 4.0 | 7.0 | 0.00 | 0.00 | 0.00 | 75 | 1004.5 |
| 20260509174004 | 84 | 144 | 4.0 | 7.0 | 0.00 | 0.00 | 0.00 | 75 | 1004.4 |
| 20260509173904 | 84 | 144 | 4.0 | 7.0 | 0.00 | 0.00 | 0.00 | 75 | 1004.4 |
| 20260509173804 | 84 | 135 | 3.0 | 7.0 | 0.00 | 0.00 | 0.00 | 76 | 1004.4 |
| 20260509173704 | 84 | 157 | 4.0 | 7.0 | 0.00 | 0.00 | 0.00 | 76 | 1004.4 |
| 20260509173603 | 84 | 165 | 5.0 | 7.0 | 0.00 | 0.00 | 0.00 | 76 | 1004.4 |
| 20260509173503 | 84 | 134 | 3.0 | 7.0 | 0.00 | 0.00 | 0.00 | 76 | 1004.4 |
| 20260509173402 | 83 | 171 | 2.0 | 7.0 | 0.00 | 0.00 | 0.00 | 76 | 1004.4 |
| 20260509173302 | 83 | 200 | 3.0 | 7.0 | 0.00 | 0.00 | 0.00 | 76 | 1004.5 |
| 20260509173202 | 83 | 199 | 3.0 | 7.0 | 0.00 | 0.00 | 0.00 | 77 | 1004.5 |
| 20260509173104 | 83 | 199 | 4.0 | 7.0 | 0.00 | 0.00 | 0.00 | 76 | 1004.5 |
| 20260509173004 | 83 | 219 | 3.0 | 7.0 | 0.00 | 0.00 | 0.00 | 76 | 1004.6 |
| 20260509172902 | 83 | 227 | 4.0 | 7.0 | 0.00 | 0.00 | 0.00 | 76 | 1004.6 |
| 20260509172804 | 83 | 145 | 4.0 | 7.0 | 0.00 | 0.00 | 0.00 | 76 | 1004.6 |
| 20260509172703 | 83 | 179 | 4.0 | 7.0 | 0.00 | 0.00 | 0.00 | 76 | 1004.7 |
| 20260509172602 | 83 | 204 | 5.0 | 7.0 | 0.00 | 0.00 | 0.00 | 76 | 1004.7 |
| 20260509172504 | 83 | 193 | 4.0 | 7.0 | 0.00 | 0.00 | 0.00 | 76 | 1004.7 |
| 20260509172402 | 83 | 176 | 3.0 | 7.0 | 0.00 | 0.00 | 0.00 | 76 | 1004.7 |
| 20260509172306 | 83 | 217 | 3.0 | 7.0 | 0.00 | 0.00 | 0.00 | 77 | 1004.7 |
| 20260509172203 | 83 | 169 | 3.0 | 7.0 | 0.00 | 0.00 | 0.00 | 76 | 1004.7 |
| 20260509172103 | 83 | 173 | 4.0 | 7.0 | 0.00 | 0.00 | 0.00 | 77 | 1004.6 |
| 20260509172000 | 83 | 180 | 3.0 | 7.0 | 0.00 | 0.00 | 0.00 | 77 | 1004.6 |
| 20260509171900 | 83 | 175 | 2.0 | 6.0 | 0.00 | 0.00 | 0.00 | 77 | 1004.6 |
| 20260509171749 | 83 | 148 | 3.0 | 7.0 | 0.00 | 0.00 | 0.00 | 77 | 1004.6 |
| 20260509171639 | 83 | 145 | 4.0 | 10.0 | 0.00 | 0.00 | 0.00 | 78 | 1004.6 |
| 20260509171538 | 83 | 202 | 3.0 | 10.0 | 0.00 | 0.00 | 0.00 | 77 | 1004.7 |
| 20260509171438 | 83 | 180 | 2.0 | 10.0 | 0.00 | 0.00 | 0.00 | 78 | 1004.6 |
| 20260509171338 | 83 | 166 | 4.0 | 10.0 | 0.00 | 0.00 | 0.00 | 78 | 1004.6 |
| 20260509171236 | 83 | 127 | 4.0 | 10.0 | 0.00 | 0.00 | 0.00 | 78 | 1004.6 |
| 20260509171137 | 83 | 120 | 4.0 | 10.0 | 0.00 | 0.00 | 0.00 | 78 | 1004.6 |
| 20260509171038 | 83 | 144 | 3.0 | 10.0 | 0.00 | 0.00 | 0.00 | 78 | 1004.6 |
| 20260509170937 | 83 | 149 | 4.0 | 10.0 | 0.00 | 0.00 | 0.00 | 78 | 1004.6 |
| 20260509170837 | 83 | 103 | 6.0 | 10.0 | 0.00 | 0.00 | 0.00 | 79 | 1004.6 |
| 20260509170736 | 83 | 109 | 5.0 | 10.0 | 0.00 | 0.00 | 0.00 | 79 | 1004.5 |
| 20260509170639 | 83 | 118 | 4.0 | 9.0 | 0.00 | 0.00 | 0.00 | 78 | 1004.5 |
| 20260509170538 | 83 | 162 | 3.0 | 9.0 | 0.00 | 0.00 | 0.00 | 80 | 1004.5 |
| 20260509170438 | 83 | 166 | 4.0 | 9.0 | 0.00 | 0.00 | 0.00 | 80 | 1004.5 |
| 20260509170339 | 83 | 120 | 5.0 | 9.0 | 0.00 | 0.00 | 0.00 | 80 | 1004.4 |
| 20260509170237 | 82 | 123 | 4.0 | 9.0 | 0.00 | 0.00 | 0.00 | 81 | 1004.4 |
| 20260509170137 | 82 | 148 | 3.0 | 7.0 | 0.00 | 0.00 | 0.00 | 82 | 1004.4 |
| 20260509170038 | 82 | 113 | 4.0 | 7.0 | 0.00 | 0.00 | 0.00 | 82 | 1004.5 |
| 20260509165939 | 81 | 111 | 3.0 | 7.0 | 0.00 | 0.00 | 0.00 | 82 | 1004.4 |
| 20260509165839 | 81 | 134 | 2.0 | 6.0 | 0.00 | 0.00 | 0.00 | 82 | 1004.5 |
| 20260509165738 | 81 | 162 | 3.0 | 6.0 | 0.00 | 0.00 | 0.00 | 82 | 1004.5 |
| 20260509165638 | 81 | 183 | 4.0 | 6.0 | 0.00 | 0.00 | 0.00 | 82 | 1004.5 |
| 20260509165536 | 81 | 147 | 4.0 | 6.0 | 0.00 | 0.00 | 0.00 | 82 | 1004.6 |
| 20260509165437 | 81 | 133 | 4.0 | 5.0 | 0.00 | 0.00 | 0.00 | 82 | 1004.6 |
| 20260509165337 | 81 | 117 | 3.0 | 5.0 | 0.00 | 0.00 | 0.00 | 82 | 1004.7 |
| 20260509165236 | 81 | 51 | 1.0 | 3.0 | 0.00 | 0.00 | 0.00 | 82 | 1004.7 |
| 20260509165137 | 81 | 48 | 0.0 | 3.0 | 0.00 | 0.00 | 0.00 | 82 | 1004.8 |
| 20260509165038 | 81 | 45 | 0.0 | 3.0 | 0.00 | 0.00 | 0.00 | 82 | 1004.8 |
| 20260509164937 | 81 | 44 | 1.0 | 3.0 | 0.00 | 0.00 | 0.00 | 83 | 1004.8 |
| 20260509164837 | 80 | 44 | 2.0 | 3.0 | 0.00 | 0.00 | 0.00 | 83 | 1004.8 |
| 20260509164736 | 80 | 44 | 2.0 | 3.0 | 0.00 | 0.00 | 0.00 | 83 | 1004.7 |
| 20260509164637 | 80 | 44 | 1.0 | 3.0 | 0.00 | 0.00 | 0.00 | 83 | 1004.8 |
| 20260509164536 | 80 | 0 | 0.0 | 3.0 | 0.00 | 0.00 | 0.00 | 83 | 1004.8 |
| 20260509164436 | 80 | 0 | 1.0 | 3.0 | 0.00 | 0.00 | 0.00 | 84 | 1004.7 |
| 20260509164337 | 80 | 0 | 1.0 | 3.0 | 0.00 | 0.00 | 0.00 | 84 | 1004.7 |
| 20260509164235 | 80 | 358 | 0.0 | 3.0 | 0.00 | 0.00 | 0.00 | 84 | 1004.7 |
| 20260509164137 | 79 | 358 | 0.0 | 3.0 | 0.00 | 0.00 | 0.00 | 84 | 1004.7 |
| 20260509164037 | 79 | 358 | 0.0 | 3.0 | 0.00 | 0.00 | 0.00 | 84 | 1004.7 |
| 20260509163938 | 79 | 358 | 0.0 | 3.0 | 0.00 | 0.00 | 0.00 | 84 | 1004.6 |
| 20260509163835 | 79 | 358 | 0.0 | 3.0 | 0.00 | 0.00 | 0.00 | 84 | 1004.7 |
| 20260509163738 | 79 | 358 | 0.0 | 3.0 | 0.00 | 0.00 | 0.00 | 84 | 1004.7 |
| 20260509163637 | 79 | 358 | 0.0 | 3.0 | 0.00 | 0.00 | 0.00 | 85 | 1004.8 |
| 20260509163536 | 79 | 358 | 0.0 | 3.0 | 0.00 | 0.00 | 0.00 | 85 | 1004.8 |
| 20260509163437 | 79 | 358 | 1.0 | 3.0 | 0.00 | 0.00 | 0.00 | 85 | 1004.7 |
| 20260509163336 | 79 | 0 | 0.0 | 3.0 | 0.00 | 0.00 | 0.00 | 85 | 1004.8 |
| 20260509163235 | 79 | 0 | 1.0 | 3.0 | 0.00 | 0.00 | 0.00 | 85 | 1004.8 |
| 20260509163136 | 79 | 0 | 1.0 | 3.0 | 0.00 | 0.00 | 0.00 | 85 | 1004.8 |
| 20260509163036 | 79 | 0 | 1.0 | 4.0 | 0.00 | 0.00 | 0.00 | 85 | 1004.8 |
| 20260509162936 | 79 | 0 | 0.0 | 4.0 | 0.00 | 0.00 | 0.00 | 85 | 1004.8 |
| 20260509162835 | 79 | 0 | 1.0 | 4.0 | 0.00 | 0.00 | 0.00 | 85 | 1004.9 |
| 20260509162737 | 79 | 0 | 1.0 | 4.0 | 0.00 | 0.00 | 0.00 | 85 | 1004.8 |
| 20260509162636 | 79 | 0 | 1.0 | 4.0 | 0.00 | 0.00 | 0.00 | 85 | 1004.8 |
| 20260509162536 | 79 | 0 | 1.0 | 4.0 | 0.00 | 0.00 | 0.00 | 86 | 1004.9 |
| 20260509162436 | 79 | 0 | 1.0 | 4.0 | 0.00 | 0.00 | 0.00 | 86 | 1004.8 |
| 20260509162335 | 79 | 0 | 1.0 | 4.0 | 0.00 | 0.00 | 0.00 | 86 | 1004.8 |
| 20260509162235 | 79 | 0 | 2.0 | 4.0 | 0.00 | 0.00 | 0.00 | 86 | 1004.9 |
| 20260509162135 | 79 | 0 | 2.0 | 4.0 | 0.00 | 0.00 | 0.00 | 86 | 1004.8 |
| 20260509162035 | 78 | 0 | 0.0 | 4.0 | 0.00 | 0.00 | 0.00 | 85 | 1004.9 |
| 20260509161935 | 78 | 0 | 0.0 | 4.0 | 0.00 | 0.00 | 0.00 | 85 | 1004.9 |
| 20260509161836 | 78 | 0 | 0.0 | 4.0 | 0.00 | 0.00 | 0.00 | 85 | 1004.9 |
| 20260509161737 | 78 | 0 | 0.0 | 4.0 | 0.00 | 0.00 | 0.00 | 86 | 1004.9 |
| 20260509161636 | 78 | 0 | 0.0 | 4.0 | 0.00 | 0.00 | 0.00 | 86 | 1005.0 |
| 20260509161535 | 78 | 0 | 1.0 | 4.0 | 0.00 | 0.00 | 0.00 | 86 | 1005.0 |
| 20260509161436 | 78 | 0 | 2.0 | 4.0 | 0.00 | 0.00 | 0.00 | 86 | 1005.0 |
| 20260509161336 | 78 | 0 | 2.0 | 4.0 | 0.00 | 0.00 | 0.00 | 86 | 1005.0 |
| 20260509161235 | 78 | 0 | 0.0 | 2.0 | 0.00 | 0.00 | 0.00 | 85 | 1005.0 |
| 20260509161135 | 78 | 0 | 0.0 | 2.0 | 0.00 | 0.00 | 0.00 | 85 | 1005.1 |
| 20260509161035 | 78 | 0 | 0.0 | 4.0 | 0.00 | 0.00 | 0.00 | 85 | 1005.0 |
| 20260509160936 | 78 | 0 | 1.0 | 4.0 | 0.00 | 0.00 | 0.00 | 85 | 1005.1 |
| 20260509160835 | 78 | 0 | 1.0 | 4.0 | 0.00 | 0.00 | 0.00 | 85 | 1005.0 |
| 20260509160735 | 78 | 0 | 0.0 | 4.0 | 0.00 | 0.00 | 0.00 | 86 | 1005.1 |
| 20260509160636 | 78 | 0 | 0.0 | 4.0 | 0.00 | 0.00 | 0.00 | 86 | 1005.1 |
| 20260509160535 | 78 | 0 | 0.0 | 5.0 | 0.00 | 0.00 | 0.00 | 86 | 1005.1 |
| 20260509160435 | 78 | 0 | 0.0 | 5.0 | 0.00 | 0.00 | 0.00 | 86 | 1005.1 |
| 20260509160336 | 78 | 0 | 0.0 | 5.0 | 0.00 | 0.00 | 0.00 | 86 | 1005.0 |
| 20260509160235 | 78 | 0 | 2.0 | 5.0 | 0.00 | 0.00 | 0.00 | 86 | 1004.9 |
| 20260509160135 | 78 | 0 | 3.0 | 5.0 | 0.00 | 0.00 | 0.00 | 86 | 1004.9 |
| 20260509160037 | 78 | 0 | 3.0 | 5.0 | 0.00 | 0.00 | 0.00 | 86 | 1005.0 |
| 20260509155934 | 78 | 0 | 2.0 | 5.0 | 0.00 | 0.00 | 0.00 | 86 | 1005.0 |
| 20260509155834 | 78 | 14 | 2.0 | 5.0 | 0.00 | 0.00 | 0.00 | 86 | 1005.0 |
| 20260509155734 | 78 | 14 | 3.0 | 5.0 | 0.00 | 0.00 | 0.00 | 86 | 1005.0 |
| 20260509155636 | 78 | 14 | 2.0 | 5.0 | 0.00 | 0.00 | 0.00 | 86 | 1005.0 |
| 20260509155537 | 78 | 166 | 1.0 | 4.0 | 0.00 | 0.00 | 0.00 | 86 | 1005.0 |
| 20260509155435 | 78 | 169 | 1.0 | 2.0 | 0.00 | 0.00 | 0.00 | 86 | 1005.0 |
| 20260509155336 | 78 | 169 | 1.0 | 2.0 | 0.00 | 0.00 | 0.00 | 86 | 1005.0 |
| 20260509155236 | 78 | 171 | 0.0 | 0.0 | 0.00 | 0.00 | 0.00 | 86 | 1005.1 |
| 20260509155135 | 78 | 166 | 0.0 | 0.0 | 0.00 | 0.00 | 0.00 | 87 | 1004.9 |
| 20260509155036 | 78 | 168 | 0.0 | 0.0 | 0.00 | 0.00 | 0.00 | 86 | 1005.0 |
| 20260509154936 | 78 | 168 | 0.0 | 0.0 | 0.00 | 0.00 | 0.00 | 86 | 1005.0 |
| 20260509154837 | 78 | 168 | 0.0 | 0.0 | 0.00 | 0.00 | 0.00 | 87 | 1005.0 |
| 20260509154734 | 78 | 168 | 0.0 | 0.0 | 0.00 | 0.00 | 0.00 | 86 | 1005.0 |
| 20260509154634 | 78 | 168 | 0.0 | 0.0 | 0.00 | 0.00 | 0.00 | 86 | 1005.0 |
| 20260509154536 | 78 | 168 | 0.0 | 0.0 | 0.00 | 0.00 | 0.00 | 86 | 1005.0 |
| 20260509154434 | 78 | 168 | 0.0 | 0.0 | 0.00 | 0.00 | 0.00 | 86 | 1004.9 |
| 20260509154335 | 78 | 168 | 0.0 | 0.0 | 0.00 | 0.00 | 0.00 | 86 | 1005.0 |
| 20260509154235 | 78 | 168 | 0.0 | 0.0 | 0.00 | 0.00 | 0.00 | 86 | 1004.9 |
| 20260509154134 | 78 | 168 | 0.0 | 0.0 | 0.00 | 0.00 | 0.00 | 86 | 1005.0 |
| 20260509154035 | 78 | 168 | 0.0 | 0.0 | 0.00 | 0.00 | 0.00 | 86 | 1005.0 |
| 20260509153935 | 78 | 168 | 0.0 | 0.0 | 0.00 | 0.00 | 0.00 | 86 | 1005.0 |
| 20260509153836 | 78 | 168 | 0.0 | 0.0 | 0.00 | 0.00 | 0.00 | 86 | 1005.1 |
| 20260509153734 | 78 | 168 | 0.0 | 0.0 | 0.00 | 0.00 | 0.00 | 86 | 1005.0 |
| 20260509153635 | 78 | 168 | 0.0 | 0.0 | 0.00 | 0.00 | 0.00 | 86 | 1005.1 |
| 20260509153535 | 78 | 168 | 0.0 | 0.0 | 0.00 | 0.00 | 0.00 | 86 | 1005.0 |
| 20260509153434 | 78 | 168 | 0.0 | 0.0 | 0.00 | 0.00 | 0.00 | 86 | 1005.0 |
| 20260509153335 | 78 | 168 | 0.0 | 0.0 | 0.00 | 0.00 | 0.00 | 86 | 1005.0 |
| 20260509153234 | 78 | 168 | 0.0 | 0.0 | 0.00 | 0.00 | 0.00 | 86 | 1004.9 |
| 20260509153134 | 78 | 168 | 0.0 | 0.0 | 0.00 | 0.00 | 0.00 | 86 | 1004.9 |
| 20260509153034 | 78 | 168 | 0.0 | 0.0 | 0.00 | 0.00 | 0.00 | 86 | 1004.9 |
| 20260509152937 | 78 | 168 | 0.0 | 0.0 | 0.00 | 0.00 | 0.00 | 86 | 1004.9 |
| 20260509152836 | 78 | 169 | 0.0 | 0.0 | 0.00 | 0.00 | 0.00 | 86 | 1004.9 |
| 20260509152734 | 78 | 173 | 0.0 | 0.0 | 0.00 | 0.00 | 0.00 | 87 | 1004.9 |
| 20260509152634 | 78 | 175 | 0.0 | 0.0 | 0.00 | 0.00 | 0.00 | 87 | 1004.9 |
| 20260509152534 | 78 | 175 | 0.0 | 0.0 | 0.00 | 0.00 | 0.00 | 87 | 1004.8 |
| 20260509152436 | 78 | 175 | 0.0 | 0.0 | 0.00 | 0.00 | 0.00 | 87 | 1004.8 |
| 20260509152334 | 78 | 175 | 0.0 | 0.0 | 0.00 | 0.00 | 0.00 | 87 | 1004.7 |
| 20260509152234 | 78 | 175 | 0.0 | 0.0 | 0.00 | 0.00 | 0.00 | 87 | 1004.8 |
| 20260509152134 | 78 | 175 | 0.0 | 0.0 | 0.00 | 0.00 | 0.00 | 87 | 1004.8 |
| 20260509152034 | 78 | 175 | 0.0 | 0.0 | 0.00 | 0.00 | 0.00 | 87 | 1004.7 |
| 20260509151936 | 78 | 175 | 0.0 | 0.0 | 0.00 | 0.00 | 0.00 | 87 | 1004.7 |
| 20260509151834 | 78 | 175 | 0.0 | 0.0 | 0.00 | 0.00 | 0.00 | 87 | 1004.8 |
| 20260509151734 | 78 | 175 | 0.0 | 0.0 | 0.00 | 0.00 | 0.00 | 87 | 1004.9 |
| 20260509151635 | 78 | 175 | 0.0 | 0.0 | 0.00 | 0.00 | 0.00 | 87 | 1004.9 |
| 20260509151534 | 78 | 175 | 0.0 | 0.0 | 0.00 | 0.00 | 0.00 | 87 | 1004.8 |
| 20260509151436 | 78 | 175 | 0.0 | 0.0 | 0.00 | 0.00 | 0.00 | 87 | 1004.9 |
| 20260509151334 | 78 | 175 | 0.0 | 0.0 | 0.00 | 0.00 | 0.00 | 88 | 1004.9 |
| 20260509151235 | 78 | 175 | 0.0 | 0.0 | 0.00 | 0.00 | 0.00 | 88 | 1004.9 |
| 20260509151133 | 78 | 175 | 0.0 | 0.0 | 0.00 | 0.00 | 0.00 | 88 | 1005.0 |
| 20260509151034 | 78 | 175 | 0.0 | 0.0 | 0.00 | 0.00 | 0.00 | 87 | 1004.9 |
| 20260509150934 | 78 | 175 | 0.0 | 0.0 | 0.00 | 0.00 | 0.00 | 88 | 1004.9 |
| 20260509150833 | 78 | 175 | 0.0 | 0.0 | 0.00 | 0.00 | 0.00 | 88 | 1004.9 |
| 20260509150733 | 78 | 175 | 0.0 | 0.0 | 0.00 | 0.00 | 0.00 | 87 | 1004.9 |
| 20260509150634 | 78 | 175 | 0.0 | 0.0 | 0.00 | 0.00 | 0.00 | 88 | 1004.9 |
| 20260509150536 | 78 | 175 | 0.0 | 0.0 | 0.00 | 0.00 | 0.00 | 88 | 1004.9 |
| 20260509150436 | 78 | 175 | 0.0 | 0.0 | 0.00 | 0.00 | 0.00 | 87 | 1004.8 |
| 20260509150335 | 78 | 175 | 0.0 | 0.0 | 0.00 | 0.00 | 0.00 | 88 | 1004.8 |
| 20260509150234 | 78 | 176 | 0.0 | 0.0 | 0.00 | 0.00 | 0.00 | 88 | 1004.8 |
| 20260509150132 | 78 | 176 | 0.0 | 0.0 | 0.00 | 0.00 | 0.00 | 88 | 1004.7 |
| 20260509150034 | 78 | 176 | 0.0 | 0.0 | 0.00 | 0.00 | 0.00 | 88 | 1004.7 |
| 20260509145935 | 78 | 176 | 0.0 | 0.0 | 0.00 | 0.00 | 0.00 | 88 | 1004.7 |
| 20260509145833 | 78 | 176 | 0.0 | 0.0 | 0.00 | 0.00 | 0.00 | 88 | 1004.7 |
| 20260509145733 | 77 | 176 | 0.0 | 0.0 | 0.00 | 0.00 | 0.00 | 89 | 1004.7 |
| 20260509145633 | 77 | 176 | 0.0 | 0.0 | 0.00 | 0.00 | 0.00 | 89 | 1004.6 |
| 20260509145533 | 77 | 176 | 0.0 | 0.0 | 0.00 | 0.00 | 0.00 | 89 | 1004.6 |
| 20260509145435 | 77 | 176 | 0.0 | 0.0 | 0.00 | 0.00 | 0.00 | 89 | 1004.6 |
| 20260509145335 | 77 | 176 | 0.0 | 0.0 | 0.00 | 0.00 | 0.00 | 89 | 1004.6 |
| 20260509145234 | 77 | 176 | 0.0 | 0.0 | 0.00 | 0.00 | 0.00 | 89 | 1004.5 |
| 20260509145133 | 77 | 176 | 0.0 | 0.0 | 0.00 | 0.00 | 0.00 | 89 | 1004.5 |
| 20260509145034 | 77 | 176 | 0.0 | 0.0 | 0.00 | 0.00 | 0.00 | 89 | 1004.5 |
| 20260509144933 | 77 | 176 | 0.0 | 0.0 | 0.00 | 0.00 | 0.00 | 89 | 1004.5 |
| 20260509144833 | 77 | 176 | 0.0 | 0.0 | 0.00 | 0.00 | 0.00 | 89 | 1004.4 |
| 20260509144734 | 77 | 176 | 0.0 | 0.0 | 0.00 | 0.00 | 0.00 | 89 | 1004.5 |
| 20260509144634 | 77 | 176 | 0.0 | 0.0 | 0.00 | 0.00 | 0.00 | 89 | 1004.4 |
| 20260509144533 | 77 | 176 | 0.0 | 0.0 | 0.00 | 0.00 | 0.00 | 89 | 1004.4 |
| 20260509144433 | 77 | 176 | 0.0 | 0.0 | 0.00 | 0.00 | 0.00 | 89 | 1004.3 |
| 20260509144333 | 77 | 176 | 0.0 | 0.0 | 0.00 | 0.00 | 0.00 | 89 | 1004.3 |
| 20260509144233 | 77 | 176 | 0.0 | 0.0 | 0.00 | 0.00 | 0.00 | 90 | 1004.3 |
| 20260509144133 | 77 | 176 | 0.0 | 0.0 | 0.00 | 0.00 | 0.00 | 90 | 1004.3 |
| 20260509144033 | 77 | 176 | 0.0 | 0.0 | 0.00 | 0.00 | 0.00 | 90 | 1004.3 |
| 20260509143933 | 77 | 176 | 0.0 | 0.0 | 0.00 | 0.00 | 0.00 | 90 | 1004.2 |
| 20260509143834 | 76 | 176 | 0.0 | 0.0 | 0.00 | 0.00 | 0.00 | 90 | 1004.1 |
| 20260509143734 | 76 | 176 | 0.0 | 0.0 | 0.00 | 0.00 | 0.00 | 90 | 1004.1 |
| 20260509143633 | 76 | 176 | 0.0 | 0.0 | 0.00 | 0.00 | 0.00 | 90 | 1004.2 |
| 20260509143533 | 76 | 176 | 0.0 | 0.0 | 0.00 | 0.00 | 0.00 | 90 | 1004.2 |
| 20260509143432 | 76 | 176 | 0.0 | 0.0 | 0.00 | 0.00 | 0.00 | 90 | 1004.3 |
| 20260509143333 | 76 | 176 | 0.0 | 0.0 | 0.00 | 0.00 | 0.00 | 90 | 1004.4 |
| 20260509143233 | 76 | 176 | 0.0 | 0.0 | 0.00 | 0.00 | 0.00 | 90 | 1004.4 |
| 20260509143133 | 76 | 176 | 0.0 | 0.0 | 0.00 | 0.00 | 0.00 | 90 | 1004.4 |
| 20260509143033 | 76 | 176 | 0.0 | 0.0 | 0.00 | 0.00 | 0.00 | 91 | 1004.4 |
| 20260509142935 | 76 | 176 | 0.0 | 0.0 | 0.00 | 0.00 | 0.00 | 91 | 1004.4 |
| 20260509142833 | 76 | 176 | 0.0 | 0.0 | 0.00 | 0.00 | 0.00 | 90 | 1004.4 |
| 20260509142736 | 76 | 176 | 0.0 | 0.0 | 0.00 | 0.00 | 0.00 | 91 | 1004.3 |
| 20260509142634 | 76 | 176 | 0.0 | 0.0 | 0.00 | 0.00 | 0.00 | 91 | 1004.3 |
| 20260509142532 | 76 | 176 | 0.0 | 0.0 | 0.00 | 0.00 | 0.00 | 91 | 1004.2 |
| 20260509142435 | 76 | 176 | 0.0 | 0.0 | 0.00 | 0.00 | 0.00 | 91 | 1004.1 |
| 20260509142332 | 76 | 176 | 0.0 | 0.0 | 0.00 | 0.00 | 0.00 | 91 | 1004.2 |
| 20260509142233 | 76 | 176 | 0.0 | 0.0 | 0.00 | 0.00 | 0.00 | 91 | 1004.1 |
| 20260509142133 | 76 | 176 | 0.0 | 0.0 | 0.00 | 0.00 | 0.00 | 91 | 1004.1 |
| 20260509142033 | 76 | 176 | 0.0 | 0.0 | 0.00 | 0.00 | 0.00 | 91 | 1004.1 |
| 20260509141932 | 76 | 176 | 0.0 | 0.0 | 0.00 | 0.00 | 0.00 | 91 | 1004.1 |
| 20260509141832 | 76 | 176 | 0.0 | 0.0 | 0.00 | 0.00 | 0.00 | 91 | 1004.1 |
| 20260509141733 | 76 | 176 | 0.0 | 0.0 | 0.00 | 0.00 | 0.00 | 91 | 1004.1 |
| 20260509141632 | 76 | 176 | 0.0 | 0.0 | 0.00 | 0.00 | 0.00 | 92 | 1004.1 |
| 20260509141533 | 76 | 176 | 0.0 | 0.0 | 0.00 | 0.00 | 0.00 | 92 | 1004.1 |
| 20260509141434 | 76 | 176 | 0.0 | 1.0 | 0.00 | 0.00 | 0.00 | 92 | 1004.2 |
| 20260509141332 | 76 | 176 | 0.0 | 1.0 | 0.00 | 0.00 | 0.00 | 92 | 1004.1 |
| 20260509141233 | 76 | 176 | 0.0 | 1.0 | 0.00 | 0.00 | 0.00 | 92 | 1004.1 |
| 20260509141132 | 76 | 176 | 0.0 | 1.0 | 0.00 | 0.00 | 0.00 | 92 | 1004.0 |
| 20260509141032 | 76 | 176 | 0.0 | 1.0 | 0.00 | 0.00 | 0.00 | 92 | 1004.0 |
| 20260509140933 | 76 | 176 | 0.0 | 1.0 | 0.00 | 0.00 | 0.00 | 92 | 1004.0 |
| 20260509140833 | 76 | 176 | 0.0 | 1.0 | 0.00 | 0.00 | 0.00 | 92 | 1004.0 |
| 20260509140732 | 76 | 176 | 0.0 | 1.0 | 0.00 | 0.00 | 0.00 | 92 | 1004.0 |
| 20260509140632 | 76 | 176 | 0.0 | 3.0 | 0.00 | 0.00 | 0.00 | 92 | 1004.1 |
| 20260509140533 | 76 | 176 | 0.0 | 3.0 | 0.00 | 0.00 | 0.00 | 92 | 1004.1 |
| 20260509140433 | 76 | 176 | 0.0 | 3.0 | 0.00 | 0.00 | 0.00 | 92 | 1004.2 |
| 20260509140332 | 76 | 176 | 0.0 | 3.0 | 0.00 | 0.00 | 0.00 | 92 | 1004.1 |
| 20260509140232 | 76 | 176 | 0.0 | 3.0 | 0.00 | 0.00 | 0.00 | 92 | 1004.0 |
| 20260509140133 | 76 | 176 | 0.0 | 3.0 | 0.00 | 0.00 | 0.00 | 92 | 1004.0 |
| 20260509140033 | 76 | 176 | 0.0 | 3.0 | 0.00 | 0.00 | 0.00 | 92 | 1003.9 |
| 20260509135934 | 76 | 176 | 0.0 | 3.0 | 0.00 | 0.00 | 0.00 | 92 | 1003.9 |
| 20260509135832 | 76 | 176 | 1.0 | 3.0 | 0.00 | 0.00 | 0.00 | 92 | 1003.9 |
| 20260509135732 | 76 | 176 | 1.0 | 3.0 | 0.00 | 0.00 | 0.00 | 93 | 1003.9 |
| 20260509135633 | 76 | 182 | 0.0 | 1.0 | 0.00 | 0.00 | 0.00 | 93 | 1003.8 |
| 20260509135532 | 76 | 183 | 0.0 | 1.0 | 0.00 | 0.00 | 0.00 | 93 | 1003.9 |
| 20260509135432 | 76 | 161 | 0.0 | 0.0 | 0.00 | 0.00 | 0.00 | 93 | 1004.0 |
| 20260509135333 | 76 | 161 | 0.0 | 0.0 | 0.00 | 0.00 | 0.00 | 93 | 1004.0 |
| 20260509135233 | 75 | 161 | 0.0 | 0.0 | 0.00 | 0.00 | 0.00 | 93 | 1004.1 |
| 20260509135133 | 75 | 161 | 0.0 | 0.0 | 0.00 | 0.00 | 0.00 | 93 | 1004.1 |
| 20260509135032 | 75 | 161 | 0.0 | 0.0 | 0.00 | 0.00 | 0.00 | 93 | 1004.0 |
| 20260509134932 | 75 | 161 | 0.0 | 1.0 | 0.00 | 0.00 | 0.00 | 93 | 1004.1 |
| 20260509134832 | 76 | 161 | 0.0 | 2.0 | 0.00 | 0.00 | 0.00 | 93 | 1004.1 |
| 20260509134734 | 75 | 161 | 0.0 | 2.0 | 0.00 | 0.00 | 0.00 | 93 | 1004.1 |
| 20260509134633 | 75 | 161 | 0.0 | 3.0 | 0.00 | 0.00 | 0.00 | 93 | 1004.1 |
| 20260509134532 | 75 | 161 | 0.0 | 3.0 | 0.00 | 0.00 | 0.00 | 93 | 1004.2 |
| 20260509134433 | 75 | 161 | 0.0 | 3.0 | 0.00 | 0.00 | 0.00 | 93 | 1004.2 |
| 20260509134332 | 76 | 161 | 0.0 | 3.0 | 0.00 | 0.00 | 0.00 | 93 | 1004.2 |
| 20260509134232 | 75 | 161 | 0.0 | 3.0 | 0.00 | 0.00 | 0.00 | 93 | 1004.3 |
| 20260509134132 | 75 | 161 | 0.0 | 3.0 | 0.00 | 0.00 | 0.00 | 93 | 1004.4 |
| 20260509134035 | 75 | 161 | 1.0 | 3.0 | 0.00 | 0.00 | 0.00 | 93 | 1004.4 |
| 20260509133932 | 76 | 161 | 1.0 | 3.0 | 0.00 | 0.00 | 0.00 | 93 | 1004.4 |
| 20260509133832 | 76 | 162 | 1.0 | 3.0 | 0.00 | 0.00 | 0.00 | 93 | 1004.4 |
| 20260509133732 | 76 | 162 | 1.0 | 3.0 | 0.00 | 0.00 | 0.00 | 93 | 1004.4 |
| 20260509133632 | 76 | 169 | 0.0 | 2.0 | 0.00 | 0.00 | 0.00 | 93 | 1004.4 |
| 20260509133532 | 76 | 171 | 0.0 | 2.0 | 0.00 | 0.00 | 0.00 | 93 | 1004.5 |
| 20260509133432 | 75 | 171 | 0.0 | 2.0 | 0.00 | 0.00 | 0.00 | 93 | 1004.5 |
| 20260509133331 | 76 | 171 | 0.0 | 2.0 | 0.00 | 0.00 | 0.00 | 93 | 1004.6 |
| 20260509133232 | 75 | 171 | 0.0 | 2.0 | 0.00 | 0.00 | 0.00 | 93 | 1004.6 |
| 20260509133132 | 76 | 171 | 1.0 | 2.0 | 0.00 | 0.00 | 0.00 | 93 | 1004.6 |
| 20260509133031 | 76 | 171 | 1.0 | 3.0 | 0.00 | 0.00 | 0.00 | 93 | 1004.5 |
| 20260509132931 | 76 | 171 | 1.0 | 3.0 | 0.00 | 0.00 | 0.00 | 93 | 1004.5 |
| 20260509132832 | 76 | 171 | 1.0 | 3.0 | 0.00 | 0.00 | 0.00 | 93 | 1004.5 |
| 20260509132733 | 75 | 171 | 2.0 | 3.0 | 0.00 | 0.00 | 0.00 | 93 | 1004.5 |
| 20260509132632 | 75 | 171 | 1.0 | 3.0 | 0.00 | 0.00 | 0.00 | 94 | 1004.6 |
| 20260509132532 | 75 | 172 | 1.0 | 3.0 | 0.00 | 0.00 | 0.00 | 94 | 1004.7 |
| 20260509132431 | 75 | 172 | 1.0 | 3.0 | 0.00 | 0.00 | 0.00 | 94 | 1004.8 |
| 20260509132333 | 75 | 172 | 1.0 | 3.0 | 0.00 | 0.00 | 0.00 | 94 | 1004.8 |
| 20260509132231 | 75 | 172 | 1.0 | 3.0 | 0.00 | 0.00 | 0.00 | 94 | 1004.8 |
| 20260509132131 | 75 | 172 | 1.0 | 3.0 | 0.00 | 0.00 | 0.00 | 94 | 1004.8 |
| 20260509132032 | 75 | 172 | 1.0 | 3.0 | 0.00 | 0.00 | 0.00 | 94 | 1004.8 |
| 20260509131933 | 75 | 172 | 1.0 | 3.0 | 0.00 | 0.00 | 0.00 | 94 | 1004.8 |
| 20260509131831 | 75 | 172 | 1.0 | 3.0 | 0.00 | 0.00 | 0.00 | 94 | 1004.8 |
| 20260509131733 | 75 | 172 | 2.0 | 3.0 | 0.00 | 0.00 | 0.00 | 94 | 1004.7 |
| 20260509131631 | 75 | 176 | 1.0 | 3.0 | 0.00 | 0.00 | 0.00 | 94 | 1004.8 |
| 20260509131531 | 75 | 217 | 0.0 | 2.0 | 0.00 | 0.00 | 0.00 | 94 | 1004.9 |
| 20260509131432 | 75 | 217 | 1.0 | 2.0 | 0.00 | 0.00 | 0.00 | 94 | 1004.9 |
| 20260509131331 | 75 | 217 | 1.0 | 2.0 | 0.00 | 0.00 | 0.00 | 94 | 1005.0 |
| 20260509131231 | 75 | 217 | 0.0 | 3.0 | 0.00 | 0.00 | 0.00 | 94 | 1005.0 |
| 20260509131132 | 75 | 259 | 0.0 | 3.0 | 0.00 | 0.00 | 0.00 | 94 | 1004.9 |
| 20260509131031 | 75 | 259 | 0.0 | 3.0 | 0.00 | 0.00 | 0.00 | 94 | 1004.9 |
| 20260509130932 | 75 | 259 | 0.0 | 3.0 | 0.00 | 0.00 | 0.00 | 94 | 1004.9 |
| 20260509130832 | 75 | 259 | 0.0 | 3.0 | 0.00 | 0.00 | 0.00 | 94 | 1004.9 |
| 20260509130732 | 75 | 259 | 1.0 | 3.0 | 0.00 | 0.00 | 0.00 | 94 | 1004.8 |
| 20260509130629 | 75 | 259 | 1.0 | 3.0 | 0.00 | 0.00 | 0.00 | 94 | 1004.8 |
| 20260509130526 | 75 | 259 | 1.0 | 3.0 | 0.00 | 0.00 | 0.00 | 94 | 1004.8 |
| 20260509130425 | 75 | 261 | 2.0 | 3.0 | 0.00 | 0.00 | 0.00 | 94 | 1004.8 |
| 20260509130324 | 75 | 285 | 2.0 | 3.0 | 0.00 | 0.00 | 0.00 | 94 | 1004.8 |
| 20260509130214 | 75 | 295 | 1.0 | 3.0 | 0.00 | 0.00 | 0.00 | 94 | 1004.8 |
| 20260509130106 | 75 | 295 | 0.0 | 1.0 | 0.00 | 0.00 | 0.00 | 94 | 1005.0 |
| 20260509130003 | 75 | 299 | 0.0 | 0.0 | 0.00 | 0.00 | 0.00 | 94 | 1005.0 |
| 20260509125902 | 75 | 299 | 0.0 | 0.0 | 0.00 | 0.00 | 0.00 | 94 | 1005.1 |
| 20260509125803 | 75 | 299 | 0.0 | 0.0 | 0.00 | 0.00 | 0.00 | 94 | 1005.1 |
| 20260509125704 | 75 | 299 | 0.0 | 0.0 | 0.00 | 0.00 | 0.00 | 94 | 1005.1 |
| 20260509125603 | 75 | 299 | 0.0 | 0.0 | 0.00 | 0.00 | 0.00 | 94 | 1005.1 |
| 20260509125503 | 75 | 300 | 0.0 | 0.0 | 0.00 | 0.00 | 0.00 | 94 | 1005.0 |
| 20260509125402 | 75 | 300 | 0.0 | 0.0 | 0.00 | 0.00 | 0.00 | 94 | 1005.1 |
| 20260509125307 | 75 | 300 | 0.0 | 0.0 | 0.00 | 0.00 | 0.00 | 94 | 1005.0 |
| 20260509125202 | 75 | 300 | 0.0 | 0.0 | 0.00 | 0.00 | 0.00 | 94 | 1004.9 |
| 20260509125104 | 75 | 300 | 0.0 | 0.0 | 0.00 | 0.00 | 0.00 | 94 | 1005.0 |
| 20260509125004 | 75 | 300 | 0.0 | 0.0 | 0.00 | 0.00 | 0.00 | 94 | 1005.0 |
| 20260509124902 | 75 | 300 | 0.0 | 1.0 | 0.00 | 0.00 | 0.00 | 94 | 1004.9 |
| 20260509124802 | 75 | 300 | 0.0 | 1.0 | 0.00 | 0.00 | 0.00 | 94 | 1004.9 |
| 20260509124702 | 75 | 300 | 0.0 | 1.0 | 0.00 | 0.00 | 0.00 | 94 | 1004.7 |
| 20260509124604 | 75 | 300 | 0.0 | 1.0 | 0.00 | 0.00 | 0.00 | 94 | 1004.8 |
| 20260509124502 | 74 | 300 | 0.0 | 1.0 | 0.00 | 0.00 | 0.00 | 94 | 1004.7 |
| 20260509124402 | 74 | 300 | 0.0 | 1.0 | 0.00 | 0.00 | 0.00 | 94 | 1004.6 |
| 20260509124254 | 74 | 300 | 0.0 | 1.0 | 0.00 | 0.00 | 0.00 | 94 | 1004.6 |
| 20260509124141 | 74 | 300 | 0.0 | 1.0 | 0.00 | 0.00 | 0.00 | 94 | 1004.6 |
| 20260509124035 | 74 | 300 | 0.0 | 1.0 | 0.00 | 0.00 | 0.00 | 94 | 1004.6 |
| 20260509123933 | 74 | 300 | 0.0 | 1.0 | 0.00 | 0.00 | 0.00 | 94 | 1004.7 |
| 20260509123831 | 74 | 300 | 0.0 | 1.0 | 0.00 | 0.00 | 0.00 | 94 | 1004.7 |
| 20260509123732 | 74 | 300 | 0.0 | 1.0 | 0.00 | 0.00 | 0.00 | 94 | 1004.7 |
| 20260509123633 | 74 | 300 | 0.0 | 1.0 | 0.00 | 0.00 | 0.00 | 94 | 1004.8 |
| 20260509123530 | 74 | 300 | 0.0 | 1.0 | 0.00 | 0.00 | 0.00 | 94 | 1004.7 |
| 20260509123432 | 74 | 300 | 0.0 | 1.0 | 0.00 | 0.00 | 0.00 | 94 | 1004.7 |
| 20260509123332 | 74 | 300 | 0.0 | 1.0 | 0.00 | 0.00 | 0.00 | 94 | 1004.7 |
| 20260509123231 | 74 | 300 | 0.0 | 1.0 | 0.00 | 0.00 | 0.00 | 94 | 1004.7 |
| 20260509123131 | 74 | 300 | 0.0 | 1.0 | 0.00 | 0.00 | 0.00 | 94 | 1004.7 |
| 20260509123030 | 74 | 300 | 1.0 | 1.0 | 0.00 | 0.00 | 0.00 | 94 | 1004.7 |
| 20260509122930 | 74 | 302 | 1.0 | 1.0 | 0.00 | 0.00 | 0.00 | 94 | 1004.7 |
| 20260509122830 | 74 | 303 | 0.0 | 1.0 | 0.00 | 0.00 | 0.00 | 94 | 1004.7 |
| 20260509122731 | 74 | 306 | 1.0 | 1.0 | 0.00 | 0.00 | 0.00 | 94 | 1004.7 |
| 20260509122630 | 74 | 306 | 1.0 | 1.0 | 0.00 | 0.00 | 0.00 | 94 | 1004.6 |
| 20260509122530 | 74 | 309 | 0.0 | 2.0 | 0.00 | 0.00 | 0.00 | 94 | 1004.6 |
| 20260509122431 | 74 | 309 | 0.0 | 2.0 | 0.00 | 0.00 | 0.00 | 94 | 1004.5 |
| 20260509122330 | 74 | 309 | 0.0 | 2.0 | 0.00 | 0.00 | 0.00 | 94 | 1004.6 |
| 20260509122231 | 74 | 309 | 0.0 | 2.0 | 0.00 | 0.00 | 0.00 | 94 | 1004.6 |
| 20260509122131 | 74 | 309 | 0.0 | 2.0 | 0.00 | 0.00 | 0.00 | 94 | 1004.5 |
| 20260509122032 | 74 | 309 | 0.0 | 2.0 | 0.00 | 0.00 | 0.00 | 94 | 1004.6 |
| 20260509121930 | 74 | 309 | 0.0 | 2.0 | 0.00 | 0.00 | 0.00 | 94 | 1004.7 |
| 20260509121830 | 74 | 309 | 0.0 | 2.0 | 0.00 | 0.00 | 0.00 | 94 | 1004.7 |
| 20260509121731 | 74 | 310 | 1.0 | 2.0 | 0.00 | 0.00 | 0.00 | 94 | 1004.7 |
| 20260509121630 | 74 | 334 | 0.0 | 2.0 | 0.00 | 0.00 | 0.00 | 94 | 1004.7 |
| 20260509121532 | 74 | 336 | 0.0 | 1.0 | 0.00 | 0.00 | 0.00 | 94 | 1004.7 |
| 20260509121432 | 74 | 336 | 0.0 | 1.0 | 0.00 | 0.00 | 0.00 | 94 | 1004.7 |
| 20260509121331 | 74 | 338 | 1.0 | 1.0 | 0.00 | 0.00 | 0.00 | 94 | 1004.7 |
| 20260509121231 | 74 | 338 | 0.0 | 1.0 | 0.00 | 0.00 | 0.00 | 94 | 1004.6 |
| 20260509121130 | 74 | 338 | 0.0 | 1.0 | 0.00 | 0.00 | 0.00 | 94 | 1004.7 |
| 20260509121029 | 74 | 340 | 0.0 | 0.0 | 0.00 | 0.00 | 0.00 | 94 | 1004.7 |
| 20260509120929 | 74 | 340 | 0.0 | 0.0 | 0.00 | 0.00 | 0.00 | 94 | 1004.7 |
| 20260509120832 | 74 | 340 | 0.0 | 0.0 | 0.00 | 0.00 | 0.00 | 94 | 1004.7 |
| 20260509120732 | 74 | 340 | 0.0 | 0.0 | 0.00 | 0.00 | 0.00 | 94 | 1004.7 |
| 20260509120631 | 74 | 340 | 0.0 | 0.0 | 0.00 | 0.00 | 0.00 | 94 | 1004.7 |
| 20260509120532 | 74 | 340 | 0.0 | 0.0 | 0.00 | 0.00 | 0.00 | 94 | 1004.7 |
| 20260509120431 | 74 | 340 | 0.0 | 0.0 | 0.00 | 0.00 | 0.00 | 94 | 1004.7 |
| 20260509120329 | 74 | 340 | 0.0 | 0.0 | 0.00 | 0.00 | 0.00 | 94 | 1004.7 |
| 20260509120230 | 74 | 340 | 0.0 | 0.0 | 0.00 | 0.00 | 0.00 | 94 | 1004.7 |
| 20260509120131 | 74 | 340 | 0.0 | 0.0 | 0.00 | 0.00 | 0.00 | 94 | 1004.5 |
| 20260509120031 | 74 | 340 | 0.0 | 0.0 | 0.00 | 0.00 | 0.00 | 94 | 1004.5 |
| 20260509115931 | 74 | 340 | 0.0 | 0.0 | 0.00 | 0.00 | 0.00 | 94 | 1004.5 |
| 20260509115831 | 74 | 340 | 0.0 | 0.0 | 0.00 | 0.00 | 0.00 | 94 | 1004.4 |
| 20260509115730 | 74 | 340 | 0.0 | 0.0 | 0.00 | 0.00 | 0.00 | 94 | 1004.4 |
| 20260509115630 | 74 | 340 | 0.0 | 0.0 | 0.00 | 0.00 | 0.00 | 94 | 1004.4 |
| 20260509115530 | 74 | 340 | 0.0 | 0.0 | 0.00 | 0.00 | 0.00 | 94 | 1004.4 |
| 20260509115430 | 74 | 340 | 0.0 | 0.0 | 0.00 | 0.00 | 0.00 | 94 | 1004.5 |
| 20260509115330 | 74 | 340 | 0.0 | 0.0 | 0.00 | 0.00 | 0.00 | 94 | 1004.5 |
| 20260509115230 | 74 | 340 | 0.0 | 0.0 | 0.00 | 0.00 | 0.00 | 94 | 1004.5 |
| 20260509115130 | 74 | 340 | 0.0 | 0.0 | 0.00 | 0.00 | 0.00 | 94 | 1004.5 |
| 20260509115029 | 74 | 340 | 0.0 | 0.0 | 0.00 | 0.00 | 0.00 | 94 | 1004.6 |
| 20260509114930 | 74 | 340 | 0.0 | 0.0 | 0.00 | 0.00 | 0.00 | 94 | 1004.5 |
| 20260509114829 | 74 | 340 | 0.0 | 0.0 | 0.00 | 0.00 | 0.00 | 94 | 1004.5 |
| 20260509114731 | 74 | 340 | 0.0 | 1.0 | 0.00 | 0.00 | 0.00 | 94 | 1004.5 |
| 20260509114630 | 74 | 340 | 0.0 | 2.0 | 0.00 | 0.00 | 0.00 | 94 | 1004.4 |
| 20260509114529 | 74 | 340 | 0.0 | 2.0 | 0.00 | 0.00 | 0.00 | 94 | 1004.4 |
| 20260509114430 | 74 | 340 | 0.0 | 3.0 | 0.00 | 0.00 | 0.00 | 94 | 1004.3 |
| 20260509114331 | 74 | 340 | 0.0 | 3.0 | 0.00 | 0.00 | 0.00 | 94 | 1004.4 |
| 20260509114230 | 74 | 340 | 0.0 | 3.0 | 0.00 | 0.00 | 0.00 | 94 | 1004.4 |
| 20260509114129 | 74 | 340 | 0.0 | 3.0 | 0.00 | 0.00 | 0.00 | 94 | 1004.4 |
| 20260509114030 | 74 | 340 | 0.0 | 3.0 | 0.00 | 0.00 | 0.00 | 94 | 1004.4 |
| 20260509113930 | 74 | 340 | 0.0 | 3.0 | 0.00 | 0.00 | 0.00 | 94 | 1004.4 |
| 20260509113830 | 74 | 340 | 1.0 | 3.0 | 0.00 | 0.00 | 0.00 | 94 | 1004.5 |
| 20260509113730 | 74 | 340 | 1.0 | 3.0 | 0.00 | 0.00 | 0.00 | 94 | 1004.5 |
| 20260509113629 | 74 | 340 | 2.0 | 3.0 | 0.00 | 0.00 | 0.00 | 94 | 1004.5 |
| 20260509113530 | 74 | 340 | 2.0 | 3.0 | 0.00 | 0.00 | 0.00 | 94 | 1004.6 |
| 20260509113430 | 74 | 340 | 2.0 | 3.0 | 0.00 | 0.00 | 0.00 | 94 | 1004.6 |
| 20260509113329 | 74 | 340 | 2.0 | 3.0 | 0.00 | 0.00 | 0.00 | 94 | 1004.7 |
| 20260509113230 | 74 | 340 | 2.0 | 3.0 | 0.00 | 0.00 | 0.00 | 94 | 1004.7 |
| 20260509113128 | 74 | 340 | 1.0 | 3.0 | 0.00 | 0.00 | 0.00 | 94 | 1004.8 |
| 20260509113031 | 74 | 340 | 0.0 | 3.0 | 0.00 | 0.00 | 0.00 | 94 | 1004.8 |
| 20260509112931 | 74 | 340 | 2.0 | 3.0 | 0.00 | 0.00 | 0.00 | 94 | 1004.7 |
| 20260509112831 | 74 | 340 | 2.0 | 3.0 | 0.00 | 0.00 | 0.00 | 94 | 1004.7 |
| 20260509112730 | 74 | 340 | 2.0 | 3.0 | 0.00 | 0.00 | 0.00 | 94 | 1004.7 |
| 20260509112628 | 74 | 340 | 2.0 | 3.0 | 0.00 | 0.00 | 0.00 | 94 | 1004.7 |
| 20260509112530 | 74 | 340 | 1.0 | 3.0 | 0.00 | 0.00 | 0.00 | 94 | 1004.6 |
| 20260509112428 | 74 | 340 | 0.0 | 2.0 | 0.00 | 0.00 | 0.00 | 94 | 1004.6 |
| 20260509112331 | 74 | 340 | 0.0 | 3.0 | 0.00 | 0.00 | 0.00 | 94 | 1004.5 |
| 20260509112230 | 74 | 340 | 0.0 | 3.0 | 0.00 | 0.00 | 0.00 | 94 | 1004.5 |
| 20260509112129 | 74 | 340 | 0.0 | 3.0 | 0.00 | 0.00 | 0.00 | 94 | 1004.5 |
| 20260509112029 | 74 | 340 | 0.0 | 5.0 | 0.00 | 0.00 | 0.00 | 94 | 1004.6 |
| 20260509111931 | 74 | 340 | 0.0 | 5.0 | 0.00 | 0.00 | 0.00 | 94 | 1004.7 |
| 20260509111830 | 74 | 340 | 0.0 | 5.0 | 0.00 | 0.00 | 0.00 | 94 | 1004.7 |
| 20260509111730 | 74 | 340 | 0.0 | 5.0 | 0.00 | 0.00 | 0.00 | 94 | 1004.7 |
| 20260509111630 | 74 | 340 | 1.0 | 5.0 | 0.00 | 0.00 | 0.00 | 94 | 1004.7 |
| 20260509111530 | 74 | 340 | 2.0 | 5.0 | 0.00 | 0.00 | 0.00 | 94 | 1004.7 |
| 20260509111429 | 74 | 340 | 2.0 | 5.0 | 0.00 | 0.00 | 0.00 | 94 | 1004.7 |
| 20260509111328 | 74 | 340 | 3.0 | 5.0 | 0.00 | 0.00 | 0.00 | 94 | 1004.6 |
| 20260509111226 | 74 | 340 | 3.0 | 5.0 | 0.00 | 0.00 | 0.00 | 94 | 1004.8 |
| 20260509111125 | 74 | 340 | 4.0 | 5.0 | 0.00 | 0.00 | 0.00 | 94 | 1004.7 |
| 20260509111018 | 74 | 340 | 4.0 | 5.0 | 0.00 | 0.00 | 0.00 | 94 | 1004.7 |
| 20260509110916 | 74 | 336 | 4.0 | 5.0 | 0.00 | 0.00 | 0.00 | 94 | 1004.6 |
| 20260509110815 | 74 | 340 | 4.0 | 5.0 | 0.00 | 0.00 | 0.00 | 94 | 1004.8 |
| 20260509110710 | 74 | 0 | 3.0 | 4.0 | 0.00 | 0.00 | 0.00 | 94 | 1004.7 |
| 20260509110603 | 74 | 14 | 1.0 | 4.0 | 0.00 | 0.00 | 0.00 | 94 | 1004.6 |
| 20260509110504 | 74 | 89 | 0.0 | 0.0 | 0.00 | 0.00 | 0.00 | 94 | 1004.7 |
| 20260509110403 | 74 | 93 | 0.0 | 0.0 | 0.00 | 0.00 | 0.00 | 94 | 1004.5 |
| 20260509110303 | 74 | 94 | 0.0 | 0.0 | 0.00 | 0.00 | 0.00 | 94 | 1004.5 |
| 20260509110203 | 74 | 131 | 0.0 | 0.0 | 0.00 | 0.00 | 0.00 | 94 | 1004.5 |
| 20260509110104 | 74 | 134 | 0.0 | 0.0 | 0.00 | 0.00 | 0.00 | 94 | 1004.5 |
| 20260509110004 | 74 | 134 | 0.0 | 0.0 | 0.00 | 0.00 | 0.00 | 94 | 1004.4 |
| 20260509105901 | 74 | 134 | 0.0 | 0.0 | 0.00 | 0.00 | 0.00 | 94 | 1004.4 |
| 20260509105802 | 74 | 134 | 0.0 | 0.0 | 0.00 | 0.00 | 0.00 | 94 | 1004.3 |
| 20260509105702 | 74 | 134 | 0.0 | 0.0 | 0.00 | 0.00 | 0.00 | 94 | 1004.3 |
| 20260509105604 | 74 | 134 | 0.0 | 0.0 | 0.00 | 0.00 | 0.00 | 94 | 1004.2 |
| 20260509105505 | 74 | 134 | 0.0 | 0.0 | 0.00 | 0.00 | 0.00 | 94 | 1004.2 |
| 20260509105403 | 74 | 134 | 0.0 | 0.0 | 0.00 | 0.00 | 0.00 | 94 | 1004.1 |
| 20260509105306 | 74 | 134 | 0.0 | 0.0 | 0.00 | 0.00 | 0.00 | 94 | 1004.1 |
| 20260509105203 | 74 | 134 | 0.0 | 0.0 | 0.00 | 0.00 | 0.00 | 94 | 1004.1 |
| 20260509105103 | 74 | 134 | 0.0 | 0.0 | 0.00 | 0.00 | 0.00 | 94 | 1004.0 |
| 20260509105004 | 74 | 134 | 0.0 | 0.0 | 0.00 | 0.00 | 0.00 | 94 | 1004.0 |
| 20260509104903 | 74 | 134 | 0.0 | 0.0 | 0.00 | 0.00 | 0.00 | 94 | 1003.9 |
| 20260509104804 | 74 | 134 | 0.0 | 0.0 | 0.00 | 0.00 | 0.00 | 94 | 1003.9 |
| 20260509104703 | 74 | 134 | 0.0 | 0.0 | 0.00 | 0.00 | 0.00 | 94 | 1003.9 |
| 20260509104604 | 74 | 134 | 0.0 | 0.0 | 0.00 | 0.00 | 0.00 | 94 | 1003.9 |
| 20260509104502 | 74 | 134 | 0.0 | 0.0 | 0.00 | 0.00 | 0.00 | 94 | 1004.0 |
| 20260509104403 | 74 | 134 | 0.0 | 0.0 | 0.00 | 0.00 | 0.00 | 94 | 1004.1 |
| 20260509104302 | 74 | 134 | 0.0 | 0.0 | 0.00 | 0.00 | 0.00 | 94 | 1004.0 |
| 20260509104202 | 74 | 134 | 0.0 | 0.0 | 0.00 | 0.00 | 0.00 | 94 | 1004.0 |
| 20260509104108 | 74 | 134 | 0.0 | 0.0 | 0.00 | 0.00 | 0.00 | 94 | 1004.1 |
| 20260509104004 | 74 | 134 | 0.0 | 0.0 | 0.00 | 0.00 | 0.00 | 94 | 1004.0 |
| 20260509103902 | 74 | 134 | 0.0 | 0.0 | 0.00 | 0.00 | 0.00 | 94 | 1004.0 |
| 20260509103803 | 74 | 134 | 0.0 | 0.0 | 0.00 | 0.00 | 0.00 | 94 | 1004.1 |
| 20260509103702 | 74 | 134 | 0.0 | 1.0 | 0.00 | 0.00 | 0.00 | 94 | 1004.0 |
| 20260509103604 | 74 | 134 | 0.0 | 1.0 | 0.00 | 0.00 | 0.00 | 94 | 1004.0 |
| 20260509103504 | 74 | 134 | 0.0 | 1.0 | 0.00 | 0.00 | 0.00 | 94 | 1004.0 |
| 20260509103402 | 74 | 134 | 0.0 | 1.0 | 0.00 | 0.00 | 0.00 | 94 | 1004.1 |
| 20260509103303 | 74 | 134 | 0.0 | 1.0 | 0.00 | 0.00 | 0.00 | 94 | 1004.0 |
| 20260509103202 | 74 | 134 | 0.0 | 1.0 | 0.00 | 0.00 | 0.00 | 94 | 1004.1 |
| 20260509103104 | 74 | 134 | 0.0 | 1.0 | 0.00 | 0.00 | 0.00 | 94 | 1004.1 |
| 20260509103002 | 74 | 134 | 0.0 | 1.0 | 0.00 | 0.00 | 0.00 | 94 | 1004.0 |
| 20260509102904 | 74 | 134 | 0.0 | 1.0 | 0.00 | 0.00 | 0.00 | 94 | 1004.0 |
| 20260509102803 | 74 | 134 | 0.0 | 1.0 | 0.00 | 0.00 | 0.00 | 94 | 1003.9 |
| 20260509102703 | 74 | 134 | 0.0 | 1.0 | 0.00 | 0.00 | 0.00 | 94 | 1004.0 |
| 20260509102604 | 74 | 134 | 0.0 | 1.0 | 0.00 | 0.00 | 0.00 | 94 | 1004.0 |
| 20260509102504 | 74 | 134 | 0.0 | 1.0 | 0.00 | 0.00 | 0.00 | 94 | 1004.0 |
| 20260509102404 | 74 | 134 | 0.0 | 1.0 | 0.00 | 0.00 | 0.00 | 94 | 1003.9 |
| 20260509102305 | 74 | 134 | 0.0 | 1.0 | 0.00 | 0.00 | 0.00 | 94 | 1003.9 |
| 20260509102203 | 74 | 134 | 0.0 | 1.0 | 0.00 | 0.00 | 0.00 | 94 | 1003.9 |
| 20260509102103 | 74 | 134 | 0.0 | 2.0 | 0.00 | 0.00 | 0.00 | 94 | 1004.0 |
| 20260509102003 | 74 | 134 | 0.0 | 2.0 | 0.00 | 0.00 | 0.00 | 94 | 1004.0 |
| 20260509101904 | 74 | 134 | 0.0 | 2.0 | 0.00 | 0.00 | 0.00 | 94 | 1004.1 |
| 20260509101802 | 74 | 134 | 0.0 | 2.0 | 0.00 | 0.00 | 0.00 | 94 | 1004.0 |
| 20260509101702 | 74 | 134 | 0.0 | 2.0 | 0.00 | 0.00 | 0.00 | 94 | 1004.0 |
| 20260509101602 | 74 | 134 | 0.0 | 2.0 | 0.00 | 0.00 | 0.00 | 94 | 1003.9 |
| 20260509101503 | 74 | 134 | 0.0 | 2.0 | 0.00 | 0.00 | 0.00 | 94 | 1003.9 |
| 20260509101403 | 74 | 134 | 0.0 | 2.0 | 0.00 | 0.00 | 0.00 | 94 | 1003.9 |
| 20260509101303 | 74 | 134 | 1.0 | 2.0 | 0.00 | 0.00 | 0.00 | 94 | 1003.9 |
| 20260509101204 | 74 | 134 | 0.0 | 2.0 | 0.00 | 0.00 | 0.00 | 94 | 1003.8 |
| 20260509101103 | 74 | 134 | 0.0 | 1.0 | 0.00 | 0.00 | 0.00 | 94 | 1003.8 |
| 20260509101003 | 74 | 134 | 0.0 | 0.0 | 0.00 | 0.00 | 0.00 | 94 | 1003.8 |
| 20260509100903 | 74 | 134 | 0.0 | 0.0 | 0.00 | 0.00 | 0.00 | 94 | 1003.9 |
| 20260509100802 | 74 | 134 | 0.0 | 0.0 | 0.00 | 0.00 | 0.00 | 94 | 1003.8 |
| 20260509100703 | 74 | 134 | 0.0 | 0.0 | 0.00 | 0.00 | 0.00 | 94 | 1003.8 |
| 20260509100604 | 74 | 134 | 0.0 | 0.0 | 0.00 | 0.00 | 0.00 | 94 | 1003.8 |
| 20260509100503 | 74 | 134 | 0.0 | 0.0 | 0.00 | 0.00 | 0.00 | 94 | 1003.7 |
| 20260509100403 | 74 | 134 | 0.0 | 0.0 | 0.00 | 0.00 | 0.00 | 94 | 1003.7 |
| 20260509100302 | 74 | 134 | 0.0 | 0.0 | 0.00 | 0.00 | 0.00 | 94 | 1003.7 |
| 20260509100204 | 74 | 134 | 0.0 | 0.0 | 0.00 | 0.00 | 0.00 | 94 | 1003.7 |
| 20260509095950 | 74 | 134 | 0.0 | 0.0 | 0.00 | 0.00 | 0.00 | 94 | 1003.6 |
| 20260509095835 | 74 | 134 | 0.0 | 0.0 | 0.00 | 0.00 | 0.00 | 94 | 1003.6 |
| 20260509095733 | 74 | 134 | 0.0 | 0.0 | 0.00 | 0.00 | 0.00 | 94 | 1003.6 |
| 20260509095630 | 74 | 134 | 0.0 | 0.0 | 0.00 | 0.00 | 0.00 | 94 | 1003.6 |
| 20260509095532 | 74 | 134 | 0.0 | 0.0 | 0.00 | 0.00 | 0.00 | 94 | 1003.6 |
| 20260509095432 | 74 | 134 | 0.0 | 0.0 | 0.00 | 0.00 | 0.00 | 94 | 1003.6 |
| 20260509095330 | 74 | 134 | 0.0 | 0.0 | 0.00 | 0.00 | 0.00 | 94 | 1003.5 |
| 20260509095229 | 74 | 134 | 0.0 | 0.0 | 0.00 | 0.00 | 0.00 | 94 | 1003.5 |
| 20260509095126 | 74 | 134 | 0.0 | 0.0 | 0.00 | 0.00 | 0.00 | 93 | 1003.5 |
| 20260509095027 | 74 | 134 | 0.0 | 0.0 | 0.00 | 0.00 | 0.00 | 94 | 1003.5 |
| 20260509094928 | 75 | 134 | 0.0 | 0.0 | 0.00 | 0.00 | 0.00 | 93 | 1003.5 |
| 20260509094826 | 74 | 134 | 0.0 | 0.0 | 0.00 | 0.00 | 0.00 | 93 | 1003.6 |
| 20260509094728 | 74 | 134 | 0.0 | 0.0 | 0.00 | 0.00 | 0.00 | 93 | 1003.6 |
| 20260509094626 | 74 | 134 | 0.0 | 0.0 | 0.00 | 0.00 | 0.00 | 93 | 1003.6 |
| 20260509094526 | 74 | 134 | 0.0 | 0.0 | 0.00 | 0.00 | 0.00 | 93 | 1003.6 |
| 20260509094428 | 75 | 134 | 0.0 | 0.0 | 0.00 | 0.00 | 0.00 | 93 | 1003.6 |
| 20260509094327 | 74 | 134 | 0.0 | 0.0 | 0.00 | 0.00 | 0.00 | 93 | 1003.6 |
| 20260509094227 | 75 | 134 | 0.0 | 0.0 | 0.00 | 0.00 | 0.00 | 93 | 1003.6 |
| 20260509094128 | 75 | 134 | 0.0 | 0.0 | 0.00 | 0.00 | 0.00 | 93 | 1003.6 |
| 20260509094029 | 75 | 134 | 0.0 | 0.0 | 0.00 | 0.00 | 0.00 | 93 | 1003.5 |
| 20260509093927 | 75 | 134 | 0.0 | 1.0 | 0.00 | 0.00 | 0.00 | 93 | 1003.6 |
| 20260509093826 | 75 | 134 | 0.0 | 2.0 | 0.00 | 0.00 | 0.00 | 93 | 1003.5 |
| 20260509093726 | 75 | 134 | 0.0 | 3.0 | 0.00 | 0.00 | 0.00 | 93 | 1003.6 |
| 20260509093627 | 75 | 134 | 0.0 | 3.0 | 0.00 | 0.00 | 0.00 | 93 | 1003.5 |
| 20260509093528 | 75 | 134 | 0.0 | 3.0 | 0.00 | 0.00 | 0.00 | 93 | 1003.5 |
| 20260509093428 | 75 | 134 | 0.0 | 3.0 | 0.00 | 0.00 | 0.00 | 93 | 1003.6 |
| 20260509093327 | 75 | 134 | 0.0 | 3.0 | 0.00 | 0.00 | 0.00 | 93 | 1003.5 |
| 20260509093228 | 75 | 134 | 0.0 | 3.0 | 0.00 | 0.00 | 0.00 | 93 | 1003.6 |
| 20260509093126 | 75 | 134 | 0.0 | 3.0 | 0.00 | 0.00 | 0.00 | 93 | 1003.5 |
| 20260509093028 | 75 | 134 | 1.0 | 3.0 | 0.00 | 0.00 | 0.00 | 93 | 1003.6 |
| 20260509092928 | 75 | 134 | 2.0 | 3.0 | 0.00 | 0.00 | 0.00 | 93 | 1003.6 |
| 20260509092826 | 75 | 135 | 1.0 | 3.0 | 0.00 | 0.00 | 0.00 | 93 | 1003.7 |
| 20260509092726 | 75 | 137 | 1.0 | 2.0 | 0.00 | 0.00 | 0.00 | 93 | 1003.7 |
| 20260509092626 | 75 | 135 | 1.0 | 2.0 | 0.00 | 0.00 | 0.00 | 93 | 1003.6 |
| 20260509092526 | 75 | 135 | 1.0 | 2.0 | 0.00 | 0.00 | 0.00 | 93 | 1003.7 |
| 20260509092426 | 75 | 135 | 1.0 | 2.0 | 0.00 | 0.00 | 0.00 | 93 | 1003.8 |
| 20260509092326 | 75 | 135 | 0.0 | 2.0 | 0.00 | 0.00 | 0.00 | 93 | 1003.7 |
| 20260509092226 | 75 | 135 | 0.0 | 0.0 | 0.00 | 0.00 | 0.00 | 93 | 1003.8 |
| 20260509092127 | 75 | 137 | 0.0 | 0.0 | 0.00 | 0.00 | 0.00 | 93 | 1003.9 |
| 20260509092027 | 75 | 137 | 0.0 | 0.0 | 0.00 | 0.00 | 0.00 | 93 | 1003.7 |
| 20260509091926 | 75 | 137 | 0.0 | 0.0 | 0.00 | 0.00 | 0.00 | 93 | 1003.8 |
| 20260509091827 | 75 | 137 | 0.0 | 0.0 | 0.00 | 0.00 | 0.00 | 93 | 1003.7 |
| 20260509091727 | 75 | 137 | 0.0 | 0.0 | 0.00 | 0.00 | 0.00 | 93 | 1003.6 |
| 20260509091627 | 75 | 137 | 0.0 | 0.0 | 0.00 | 0.00 | 0.00 | 93 | 1003.6 |
| 20260509091527 | 75 | 137 | 0.0 | 0.0 | 0.00 | 0.00 | 0.00 | 93 | 1003.6 |
| 20260509091427 | 75 | 137 | 0.0 | 0.0 | 0.00 | 0.00 | 0.00 | 93 | 1003.7 |
| 20260509091326 | 75 | 137 | 0.0 | 0.0 | 0.00 | 0.00 | 0.00 | 93 | 1003.8 |
| 20260509091226 | 75 | 137 | 0.0 | 0.0 | 0.00 | 0.00 | 0.00 | 93 | 1003.8 |
| 20260509091126 | 75 | 137 | 0.0 | 0.0 | 0.00 | 0.00 | 0.00 | 93 | 1003.8 |
| 20260509091027 | 75 | 137 | 0.0 | 0.0 | 0.00 | 0.00 | 0.00 | 93 | 1004.0 |
| 20260509090926 | 75 | 137 | 0.0 | 0.0 | 0.00 | 0.00 | 0.00 | 93 | 1003.9 |
| 20260509090826 | 75 | 137 | 0.0 | 0.0 | 0.00 | 0.00 | 0.00 | 93 | 1004.0 |
| 20260509090725 | 75 | 137 | 0.0 | 0.0 | 0.00 | 0.00 | 0.00 | 93 | 1004.0 |
| 20260509090627 | 75 | 137 | 0.0 | 0.0 | 0.00 | 0.00 | 0.00 | 93 | 1003.9 |
| 20260509090526 | 75 | 137 | 0.0 | 0.0 | 0.00 | 0.00 | 0.00 | 93 | 1004.0 |
| 20260509090425 | 75 | 137 | 0.0 | 0.0 | 0.00 | 0.00 | 0.00 | 93 | 1004.0 |
| 20260509090326 | 75 | 137 | 0.0 | 0.0 | 0.00 | 0.00 | 0.00 | 93 | 1004.0 |
| 20260509090226 | 75 | 137 | 0.0 | 0.0 | 0.00 | 0.00 | 0.00 | 93 | 1004.0 |
| 20260509090125 | 75 | 137 | 0.0 | 0.0 | 0.00 | 0.00 | 0.00 | 93 | 1004.0 |
| 20260509090027 | 75 | 137 | 0.0 | 0.0 | 0.00 | 0.00 | 0.00 | 93 | 1004.0 |
| 20260509085927 | 75 | 137 | 0.0 | 0.0 | 0.00 | 0.00 | 0.00 | 93 | 1003.9 |
| 20260509085826 | 75 | 137 | 0.0 | 0.0 | 0.00 | 0.00 | 0.00 | 93 | 1004.0 |
| 20260509085727 | 75 | 137 | 0.0 | 0.0 | 0.00 | 0.00 | 0.00 | 93 | 1004.0 |
| 20260509085626 | 75 | 137 | 0.0 | 0.0 | 0.00 | 0.00 | 0.00 | 93 | 1004.1 |
| 20260509085525 | 75 | 137 | 0.0 | 0.0 | 0.00 | 0.00 | 0.00 | 93 | 1004.0 |
| 20260509085425 | 75 | 137 | 0.0 | 0.0 | 0.00 | 0.00 | 0.00 | 93 | 1004.0 |
| 20260509085327 | 75 | 137 | 0.0 | 0.0 | 0.00 | 0.00 | 0.00 | 93 | 1004.0 |
| 20260509085225 | 75 | 137 | 0.0 | 0.0 | 0.00 | 0.00 | 0.00 | 93 | 1004.0 |
| 20260509085127 | 75 | 137 | 0.0 | 0.0 | 0.00 | 0.00 | 0.00 | 93 | 1004.1 |
| 20260509085027 | 75 | 137 | 0.0 | 0.0 | 0.00 | 0.00 | 0.00 | 93 | 1004.2 |
| 20260509084927 | 75 | 137 | 0.0 | 0.0 | 0.00 | 0.00 | 0.00 | 93 | 1004.1 |
| 20260509084825 | 75 | 137 | 0.0 | 0.0 | 0.00 | 0.00 | 0.00 | 93 | 1004.1 |
| 20260509084727 | 75 | 137 | 0.0 | 0.0 | 0.00 | 0.00 | 0.00 | 93 | 1004.2 |
| 20260509084625 | 75 | 137 | 0.0 | 0.0 | 0.00 | 0.00 | 0.00 | 93 | 1004.2 |
| 20260509084526 | 75 | 137 | 0.0 | 0.0 | 0.00 | 0.00 | 0.00 | 93 | 1004.1 |
| 20260509084425 | 75 | 137 | 0.0 | 0.0 | 0.00 | 0.00 | 0.00 | 93 | 1004.1 |
| 20260509084326 | 75 | 137 | 0.0 | 0.0 | 0.00 | 0.00 | 0.00 | 93 | 1004.1 |
| 20260509084225 | 75 | 137 | 0.0 | 0.0 | 0.00 | 0.00 | 0.00 | 93 | 1004.1 |
| 20260509084127 | 75 | 137 | 0.0 | 0.0 | 0.00 | 0.00 | 0.00 | 93 | 1004.1 |
| 20260509084025 | 75 | 137 | 0.0 | 0.0 | 0.00 | 0.00 | 0.00 | 93 | 1004.1 |
| 20260509083926 | 75 | 137 | 0.0 | 0.0 | 0.00 | 0.00 | 0.00 | 93 | 1004.0 |
| 20260509083825 | 75 | 137 | 0.0 | 0.0 | 0.00 | 0.00 | 0.00 | 93 | 1004.1 |
| 20260509083725 | 75 | 137 | 0.0 | 0.0 | 0.00 | 0.00 | 0.00 | 93 | 1004.1 |
| 20260509083625 | 75 | 137 | 0.0 | 0.0 | 0.00 | 0.00 | 0.00 | 93 | 1004.1 |
| 20260509083528 | 75 | 137 | 0.0 | 0.0 | 0.00 | 0.00 | 0.00 | 93 | 1004.1 |
| 20260509083425 | 75 | 137 | 0.0 | 0.0 | 0.00 | 0.00 | 0.00 | 93 | 1004.2 |
| 20260509083326 | 75 | 137 | 0.0 | 0.0 | 0.00 | 0.00 | 0.00 | 93 | 1004.2 |
| 20260509083226 | 75 | 137 | 0.0 | 0.0 | 0.00 | 0.00 | 0.00 | 93 | 1004.1 |
| 20260509083126 | 75 | 137 | 0.0 | 0.0 | 0.00 | 0.00 | 0.00 | 93 | 1004.1 |
| 20260509083026 | 75 | 137 | 0.0 | 0.0 | 0.00 | 0.00 | 0.00 | 93 | 1004.0 |
| 20260509082924 | 75 | 137 | 0.0 | 0.0 | 0.00 | 0.00 | 0.00 | 93 | 1004.0 |
| 20260509082824 | 75 | 137 | 0.0 | 0.0 | 0.00 | 0.00 | 0.00 | 93 | 1004.0 |
| 20260509082724 | 75 | 137 | 0.0 | 0.0 | 0.00 | 0.00 | 0.00 | 93 | 1003.9 |
| 20260509082627 | 75 | 137 | 0.0 | 0.0 | 0.00 | 0.00 | 0.00 | 93 | 1003.9 |
| 20260509082525 | 75 | 137 | 0.0 | 0.0 | 0.00 | 0.00 | 0.00 | 93 | 1003.9 |
| 20260509082424 | 75 | 137 | 0.0 | 0.0 | 0.00 | 0.00 | 0.00 | 93 | 1003.9 |
| 20260509082324 | 75 | 137 | 0.0 | 0.0 | 0.00 | 0.00 | 0.00 | 93 | 1003.9 |
| 20260509082226 | 75 | 137 | 0.0 | 1.0 | 0.00 | 0.00 | 0.00 | 93 | 1003.9 |
| 20260509082126 | 75 | 137 | 0.0 | 1.0 | 0.00 | 0.00 | 0.00 | 93 | 1004.0 |
| 20260509082026 | 75 | 137 | 0.0 | 1.0 | 0.00 | 0.00 | 0.00 | 93 | 1004.0 |
| 20260509081926 | 75 | 137 | 0.0 | 1.0 | 0.00 | 0.00 | 0.00 | 93 | 1004.0 |
| 20260509081824 | 75 | 137 | 0.0 | 3.0 | 0.00 | 0.00 | 0.00 | 93 | 1003.9 |
| 20260509081725 | 75 | 137 | 0.0 | 3.0 | 0.00 | 0.00 | 0.00 | 93 | 1004.0 |
| 20260509081625 | 75 | 137 | 0.0 | 3.0 | 0.00 | 0.00 | 0.00 | 93 | 1004.0 |
| 20260509081525 | 75 | 137 | 0.0 | 3.0 | 0.00 | 0.00 | 0.00 | 93 | 1003.9 |
| 20260509081426 | 75 | 137 | 0.0 | 3.0 | 0.00 | 0.00 | 0.00 | 93 | 1003.9 |
| 20260509081324 | 75 | 137 | 0.0 | 3.0 | 0.00 | 0.00 | 0.00 | 93 | 1003.9 |
| 20260509081226 | 75 | 135 | 0.0 | 3.0 | 0.00 | 0.00 | 0.00 | 93 | 1004.0 |
| 20260509081124 | 75 | 135 | 0.0 | 3.0 | 0.00 | 0.00 | 0.00 | 93 | 1004.0 |
| 20260509081025 | 75 | 135 | 1.0 | 3.0 | 0.00 | 0.00 | 0.00 | 93 | 1004.0 |
| 20260509080925 | 75 | 135 | 1.0 | 3.0 | 0.00 | 0.00 | 0.00 | 93 | 1004.0 |
| 20260509080824 | 75 | 137 | 1.0 | 2.0 | 0.00 | 0.00 | 0.00 | 93 | 1004.0 |
| 20260509080726 | 75 | 137 | 0.0 | 2.0 | 0.00 | 0.00 | 0.00 | 93 | 1003.9 |
| 20260509080625 | 75 | 131 | 0.0 | 2.0 | 0.00 | 0.00 | 0.00 | 93 | 1003.9 |
| 20260509080525 | 75 | 131 | 1.0 | 2.0 | 0.00 | 0.00 | 0.00 | 93 | 1003.8 |
| 20260509080425 | 75 | 131 | 1.0 | 2.0 | 0.00 | 0.00 | 0.00 | 93 | 1003.8 |
| 20260509080324 | 75 | 131 | 0.0 | 3.0 | 0.00 | 0.00 | 0.00 | 93 | 1003.8 |
| 20260509080225 | 75 | 131 | 0.0 | 3.0 | 0.00 | 0.00 | 0.00 | 93 | 1003.8 |
| 20260509080125 | 75 | 131 | 0.0 | 3.0 | 0.00 | 0.00 | 0.00 | 93 | 1003.8 |
| 20260509080024 | 75 | 131 | 1.0 | 3.0 | 0.00 | 0.00 | 0.00 | 93 | 1003.8 |
| 20260509075924 | 75 | 131 | 1.0 | 4.0 | 0.00 | 0.00 | 0.00 | 93 | 1003.8 |
| 20260509075825 | 75 | 131 | 1.0 | 4.0 | 0.00 | 0.00 | 0.00 | 93 | 1003.8 |
| 20260509075724 | 75 | 131 | 1.0 | 4.0 | 0.00 | 0.00 | 0.00 | 93 | 1003.8 |
| 20260509075624 | 75 | 131 | 0.0 | 4.0 | 0.00 | 0.00 | 0.00 | 93 | 1003.8 |
| 20260509075525 | 75 | 131 | 2.0 | 4.0 | 0.00 | 0.00 | 0.00 | 93 | 1003.8 |
| 20260509075424 | 75 | 131 | 2.0 | 4.0 | 0.00 | 0.00 | 0.00 | 93 | 1003.8 |
| 20260509075326 | 75 | 114 | 2.0 | 4.0 | 0.00 | 0.00 | 0.00 | 93 | 1003.8 |
| 20260509075225 | 75 | 114 | 2.0 | 4.0 | 0.00 | 0.00 | 0.00 | 93 | 1003.8 |
| 20260509075125 | 75 | 114 | 3.0 | 4.0 | 0.00 | 0.00 | 0.00 | 93 | 1003.8 |
| 20260509075026 | 75 | 111 | 2.0 | 4.0 | 0.00 | 0.00 | 0.00 | 93 | 1003.9 |
| 20260509074925 | 75 | 111 | 2.0 | 4.0 | 0.00 | 0.00 | 0.00 | 93 | 1003.8 |
| 20260509074824 | 75 | 111 | 3.0 | 4.0 | 0.00 | 0.00 | 0.00 | 93 | 1003.9 |
| 20260509074723 | 75 | 110 | 3.0 | 4.0 | 0.00 | 0.00 | 0.00 | 93 | 1003.9 |
| 20260509074625 | 75 | 114 | 3.0 | 4.0 | 0.00 | 0.00 | 0.00 | 93 | 1004.0 |
| 20260509074524 | 75 | 114 | 3.0 | 4.0 | 0.00 | 0.00 | 0.00 | 93 | 1003.9 |
| 20260509074425 | 75 | 114 | 2.0 | 4.0 | 0.00 | 0.00 | 0.00 | 93 | 1003.9 |
| 20260509074323 | 75 | 116 | 2.0 | 4.0 | 0.00 | 0.00 | 0.00 | 93 | 1003.8 |
| 20260509074225 | 75 | 116 | 3.0 | 4.0 | 0.00 | 0.00 | 0.00 | 93 | 1003.8 |
| 20260509074126 | 75 | 114 | 2.0 | 5.0 | 0.00 | 0.00 | 0.00 | 93 | 1003.7 |
| 20260509074024 | 75 | 116 | 1.0 | 5.0 | 0.00 | 0.00 | 0.00 | 93 | 1003.8 |
| 20260509073925 | 75 | 116 | 2.0 | 7.0 | 0.00 | 0.00 | 0.00 | 93 | 1003.7 |
| 20260509073824 | 75 | 116 | 2.0 | 7.0 | 0.00 | 0.00 | 0.00 | 92 | 1003.8 |
| 20260509073725 | 75 | 116 | 3.0 | 7.0 | 0.00 | 0.00 | 0.00 | 92 | 1003.8 |
| 20260509073626 | 75 | 116 | 3.0 | 7.0 | 0.00 | 0.00 | 0.00 | 93 | 1003.8 |
| 20260509073524 | 75 | 117 | 3.0 | 7.0 | 0.00 | 0.00 | 0.00 | 92 | 1003.8 |
| 20260509073424 | 75 | 117 | 3.0 | 7.0 | 0.00 | 0.00 | 0.00 | 92 | 1003.9 |
| 20260509073323 | 75 | 113 | 3.0 | 7.0 | 0.00 | 0.00 | 0.00 | 92 | 1003.9 |
| 20260509073223 | 75 | 113 | 3.0 | 7.0 | 0.00 | 0.00 | 0.00 | 92 | 1003.9 |
| 20260509073123 | 75 | 123 | 4.0 | 7.0 | 0.00 | 0.00 | 0.00 | 92 | 1003.9 |
| 20260509073024 | 75 | 97 | 4.0 | 7.0 | 0.00 | 0.00 | 0.00 | 92 | 1003.9 |
| 20260509072923 | 75 | 117 | 3.0 | 6.0 | 0.00 | 0.00 | 0.00 | 92 | 1003.9 |
| 20260509072823 | 75 | 117 | 3.0 | 6.0 | 0.00 | 0.00 | 0.00 | 92 | 1003.8 |
| 20260509072723 | 75 | 118 | 2.0 | 6.0 | 0.00 | 0.00 | 0.00 | 92 | 1003.9 |
| 20260509072625 | 75 | 116 | 3.0 | 6.0 | 0.00 | 0.00 | 0.00 | 92 | 1003.8 |
| 20260509072524 | 75 | 117 | 4.0 | 6.0 | 0.00 | 0.00 | 0.00 | 92 | 1003.8 |
| 20260509072423 | 75 | 102 | 2.0 | 6.0 | 0.00 | 0.00 | 0.00 | 92 | 1003.7 |
| 20260509072323 | 75 | 111 | 2.0 | 6.0 | 0.00 | 0.00 | 0.00 | 92 | 1003.6 |
| 20260509072223 | 75 | 111 | 4.0 | 6.0 | 0.00 | 0.00 | 0.00 | 92 | 1003.6 |
| 20260509072124 | 75 | 104 | 3.0 | 6.0 | 0.00 | 0.00 | 0.00 | 92 | 1003.6 |
| 20260509072025 | 75 | 127 | 3.0 | 6.0 | 0.00 | 0.00 | 0.00 | 92 | 1003.6 |
| 20260509071923 | 75 | 125 | 4.0 | 6.0 | 0.00 | 0.00 | 0.00 | 92 | 1003.5 |
| 20260509071826 | 75 | 111 | 4.0 | 6.0 | 0.00 | 0.00 | 0.00 | 92 | 1003.5 |
| 20260509071725 | 75 | 142 | 4.0 | 6.0 | 0.00 | 0.00 | 0.00 | 92 | 1003.6 |
| 20260509071623 | 75 | 134 | 3.0 | 6.0 | 0.00 | 0.00 | 0.00 | 92 | 1003.6 |
| 20260509071525 | 75 | 133 | 4.0 | 6.0 | 0.00 | 0.00 | 0.00 | 92 | 1003.6 |
| 20260509071423 | 75 | 125 | 4.0 | 6.0 | 0.00 | 0.00 | 0.00 | 92 | 1003.6 |
| 20260509071323 | 75 | 152 | 4.0 | 5.0 | 0.00 | 0.00 | 0.00 | 92 | 1003.6 |
| 20260509071223 | 75 | 135 | 3.0 | 5.0 | 0.00 | 0.00 | 0.00 | 92 | 1003.6 |
| 20260509071124 | 75 | 125 | 2.0 | 5.0 | 0.00 | 0.00 | 0.00 | 92 | 1003.7 |
| 20260509071022 | 75 | 127 | 2.0 | 5.0 | 0.00 | 0.00 | 0.00 | 92 | 1003.7 |
| 20260509070924 | 75 | 123 | 3.0 | 5.0 | 0.00 | 0.00 | 0.00 | 92 | 1003.8 |
| 20260509070824 | 75 | 128 | 3.0 | 4.0 | 0.00 | 0.00 | 0.00 | 92 | 1003.8 |
| 20260509070724 | 75 | 137 | 2.0 | 4.0 | 0.00 | 0.00 | 0.00 | 92 | 1003.8 |
| 20260509070636 | 75 | 137 | 2.0 | 4.0 | 0.00 | 0.00 | 0.00 | 92 | 1004.0 |
| 20260509070628 | 75 | 140 | 2.0 | 4.0 | 0.00 | 0.00 | 0.00 | 92 | 1003.9 |
| 20260509070606 | 75 | 141 | 2.0 | 4.0 | 0.00 | 0.00 | 0.00 | 92 | 1003.9 |
| 20260509070540 | 75 | 141 | 2.0 | 4.0 | 0.00 | 0.00 | 0.00 | 92 | 1003.9 |
| 20260509070204 | 75 | 137 | 2.0 | 4.0 | 0.00 | 0.00 | 0.00 | 92 | 1004.0 |
| 20260509070104 | 75 | 138 | 1.0 | 3.0 | 0.00 | 0.00 | 0.00 | 92 | 1004.0 |
| 20260509070004 | 75 | 138 | 2.0 | 3.0 | 0.00 | 0.00 | 0.00 | 92 | 1004.0 |
| 20260509065903 | 75 | 140 | 1.0 | 3.0 | 0.00 | 0.00 | 0.00 | 92 | 1004.0 |
| 20260509065801 | 75 | 140 | 1.0 | 3.0 | 0.00 | 0.00 | 0.00 | 92 | 1003.9 |
| 20260509065703 | 75 | 140 | 1.0 | 3.0 | 0.00 | 0.00 | 0.00 | 92 | 1004.0 |
| 20260509065603 | 75 | 141 | 1.0 | 4.0 | 0.00 | 0.00 | 0.00 | 92 | 1004.0 |
| 20260509065505 | 75 | 140 | 2.0 | 4.0 | 0.00 | 0.00 | 0.00 | 92 | 1004.0 |
| 20260509065403 | 75 | 138 | 2.0 | 4.0 | 0.00 | 0.00 | 0.00 | 92 | 1004.0 |
| 20260509065306 | 75 | 137 | 2.0 | 6.0 | 0.00 | 0.00 | 0.00 | 92 | 1004.0 |
| 20260509065204 | 75 | 133 | 2.0 | 6.0 | 0.00 | 0.00 | 0.00 | 92 | 1004.0 |
| 20260509065103 | 75 | 133 | 2.0 | 6.0 | 0.00 | 0.00 | 0.00 | 92 | 1004.1 |
| 20260509065003 | 75 | 134 | 2.0 | 6.0 | 0.00 | 0.00 | 0.00 | 92 | 1004.0 |
| 20260509064904 | 75 | 123 | 2.0 | 6.0 | 0.00 | 0.00 | 0.00 | 92 | 1004.0 |
| 20260509064803 | 75 | 124 | 2.0 | 6.0 | 0.00 | 0.00 | 0.00 | 92 | 1004.0 |
| 20260509064704 | 75 | 110 | 3.0 | 6.0 | 0.00 | 0.00 | 0.00 | 92 | 1004.0 |
| 20260509064602 | 75 | 111 | 3.0 | 6.0 | 0.00 | 0.00 | 0.00 | 92 | 1004.0 |
| 20260509064502 | 75 | 106 | 4.0 | 6.0 | 0.00 | 0.00 | 0.00 | 92 | 1004.0 |
| 20260509064404 | 75 | 104 | 4.0 | 6.0 | 0.00 | 0.00 | 0.00 | 92 | 1004.1 |
| 20260509064302 | 75 | 120 | 3.0 | 4.0 | 0.00 | 0.00 | 0.00 | 92 | 1004.1 |
| 20260509064203 | 75 | 116 | 2.0 | 4.0 | 0.00 | 0.00 | 0.00 | 92 | 1004.2 |
| 20260509064104 | 75 | 116 | 3.0 | 4.0 | 0.00 | 0.00 | 0.00 | 92 | 1004.1 |
| 20260509064004 | 75 | 116 | 2.0 | 4.0 | 0.00 | 0.00 | 0.00 | 92 | 1004.1 |
| 20260509063901 | 75 | 117 | 2.0 | 3.0 | 0.00 | 0.00 | 0.00 | 92 | 1004.1 |
| 20260509063802 | 75 | 117 | 2.0 | 3.0 | 0.00 | 0.00 | 0.00 | 92 | 1004.3 |
| 20260509063702 | 75 | 116 | 2.0 | 3.0 | 0.00 | 0.00 | 0.00 | 92 | 1004.2 |
| 20260509063603 | 75 | 114 | 2.0 | 3.0 | 0.00 | 0.00 | 0.00 | 92 | 1004.2 |
| 20260509063503 | 75 | 107 | 2.0 | 3.0 | 0.00 | 0.00 | 0.00 | 92 | 1004.3 |
| 20260509063405 | 75 | 107 | 2.0 | 3.0 | 0.00 | 0.00 | 0.00 | 92 | 1004.2 |
| 20260509063302 | 75 | 107 | 2.0 | 3.0 | 0.00 | 0.00 | 0.00 | 92 | 1004.2 |
| 20260509063204 | 75 | 107 | 2.0 | 4.0 | 0.00 | 0.00 | 0.00 | 92 | 1004.3 |
| 20260509063049 | 75 | 107 | 2.0 | 4.0 | 0.00 | 0.00 | 0.00 | 92 | 1004.3 |
| 20260509062934 | 75 | 107 | 2.0 | 4.0 | 0.00 | 0.00 | 0.00 | 92 | 1004.3 |
| 20260509062833 | 75 | 107 | 1.0 | 4.0 | 0.00 | 0.00 | 0.00 | 92 | 1004.3 |
| 20260509062731 | 75 | 107 | 1.0 | 4.0 | 0.00 | 0.00 | 0.00 | 92 | 1004.3 |
| 20260509062632 | 75 | 107 | 2.0 | 4.0 | 0.00 | 0.00 | 0.00 | 92 | 1004.3 |
| 20260509062531 | 75 | 107 | 2.0 | 4.0 | 0.00 | 0.00 | 0.00 | 92 | 1004.3 |
| 20260509062431 | 75 | 109 | 3.0 | 4.0 | 0.00 | 0.00 | 0.00 | 92 | 1004.4 |
| 20260509062332 | 75 | 109 | 3.0 | 4.0 | 0.00 | 0.00 | 0.00 | 92 | 1004.2 |
| 20260509062233 | 75 | 127 | 2.0 | 4.0 | 0.00 | 0.00 | 0.00 | 92 | 1004.3 |
| 20260509062133 | 75 | 127 | 2.0 | 4.0 | 0.00 | 0.00 | 0.00 | 92 | 1004.3 |
| 20260509062033 | 75 | 127 | 2.0 | 4.0 | 0.00 | 0.00 | 0.00 | 92 | 1004.4 |
| 20260509061931 | 75 | 127 | 3.0 | 4.0 | 0.00 | 0.00 | 0.00 | 92 | 1004.3 |
| 20260509061832 | 75 | 142 | 2.0 | 3.0 | 0.00 | 0.00 | 0.00 | 92 | 1004.4 |
| 20260509061733 | 75 | 142 | 2.0 | 3.0 | 0.00 | 0.00 | 0.00 | 92 | 1004.4 |
| 20260509061633 | 75 | 142 | 2.0 | 3.0 | 0.00 | 0.00 | 0.00 | 92 | 1004.4 |
| 20260509061533 | 75 | 142 | 2.0 | 3.0 | 0.00 | 0.00 | 0.00 | 92 | 1004.4 |
| 20260509061432 | 75 | 144 | 2.0 | 3.0 | 0.00 | 0.00 | 0.00 | 92 | 1004.5 |
| 20260509061328 | 75 | 144 | 1.0 | 3.0 | 0.00 | 0.00 | 0.00 | 92 | 1004.5 |
| 20260509061227 | 75 | 144 | 0.0 | 3.0 | 0.00 | 0.00 | 0.00 | 92 | 1004.5 |
| 20260509061122 | 75 | 144 | 0.0 | 3.0 | 0.00 | 0.00 | 0.00 | 92 | 1004.5 |
| 20260509061023 | 75 | 144 | 0.0 | 3.0 | 0.00 | 0.00 | 0.00 | 92 | 1004.6 |
| 20260509060923 | 75 | 144 | 0.0 | 4.0 | 0.00 | 0.00 | 0.00 | 92 | 1004.5 |
| 20260509060821 | 75 | 144 | 0.0 | 4.0 | 0.00 | 0.00 | 0.00 | 91 | 1004.5 |
| 20260509060722 | 75 | 144 | 0.0 | 4.0 | 0.00 | 0.00 | 0.00 | 91 | 1004.6 |
| 20260509060621 | 75 | 144 | 1.0 | 4.0 | 0.00 | 0.00 | 0.00 | 91 | 1004.7 |
| 20260509060523 | 75 | 144 | 2.0 | 4.0 | 0.00 | 0.00 | 0.00 | 91 | 1004.6 |
| 20260509060423 | 75 | 144 | 2.0 | 4.0 | 0.00 | 0.00 | 0.00 | 91 | 1004.5 |
| 20260509060321 | 75 | 144 | 2.0 | 4.0 | 0.00 | 0.00 | 0.00 | 91 | 1004.6 |
| 20260509060224 | 75 | 144 | 1.0 | 4.0 | 0.00 | 0.00 | 0.00 | 91 | 1004.6 |
| 20260509060122 | 75 | 144 | 2.0 | 4.0 | 0.00 | 0.00 | 0.00 | 91 | 1004.6 |
| 20260509060022 | 75 | 144 | 2.0 | 4.0 | 0.00 | 0.00 | 0.00 | 91 | 1004.6 |
| 20260509055924 | 75 | 145 | 2.0 | 4.0 | 0.00 | 0.00 | 0.00 | 91 | 1004.6 |
| 20260509055821 | 75 | 145 | 2.0 | 4.0 | 0.00 | 0.00 | 0.00 | 91 | 1004.5 |
| 20260509055723 | 75 | 147 | 2.0 | 4.0 | 0.00 | 0.00 | 0.00 | 91 | 1004.4 |
| 20260509055622 | 75 | 147 | 1.0 | 4.0 | 0.00 | 0.00 | 0.00 | 91 | 1004.5 |
| 20260509055521 | 75 | 147 | 1.0 | 4.0 | 0.00 | 0.00 | 0.00 | 91 | 1004.4 |
| 20260509055423 | 75 | 147 | 2.0 | 4.0 | 0.00 | 0.00 | 0.00 | 91 | 1004.4 |
| 20260509055323 | 75 | 147 | 3.0 | 4.0 | 0.00 | 0.00 | 0.00 | 91 | 1004.5 |
| 20260509055222 | 75 | 148 | 2.0 | 4.0 | 0.00 | 0.00 | 0.00 | 91 | 1004.5 |
| 20260509055121 | 75 | 158 | 2.0 | 4.0 | 0.00 | 0.00 | 0.00 | 91 | 1004.6 |
| 20260509055021 | 75 | 158 | 1.0 | 4.0 | 0.00 | 0.00 | 0.00 | 91 | 1004.5 |
| 20260509054921 | 75 | 110 | 1.0 | 4.0 | 0.00 | 0.00 | 0.00 | 91 | 1004.5 |
| 20260509054821 | 75 | 110 | 2.0 | 4.0 | 0.00 | 0.00 | 0.00 | 91 | 1004.6 |
| 20260509054722 | 75 | 109 | 1.0 | 5.0 | 0.00 | 0.00 | 0.00 | 91 | 1004.6 |
| 20260509054621 | 75 | 109 | 1.0 | 5.0 | 0.00 | 0.00 | 0.00 | 91 | 1004.6 |
| 20260509054524 | 75 | 109 | 2.0 | 6.0 | 0.00 | 0.00 | 0.00 | 91 | 1004.6 |
| 20260509054422 | 75 | 107 | 3.0 | 6.0 | 0.00 | 0.00 | 0.00 | 91 | 1004.6 |
| 20260509054322 | 75 | 107 | 3.0 | 6.0 | 0.00 | 0.00 | 0.00 | 91 | 1004.5 |
| 20260509054223 | 75 | 107 | 3.0 | 6.0 | 0.00 | 0.00 | 0.00 | 91 | 1004.5 |
| 20260509054122 | 75 | 102 | 3.0 | 6.0 | 0.00 | 0.00 | 0.00 | 91 | 1004.5 |
| 20260509054021 | 75 | 102 | 4.0 | 6.0 | 0.00 | 0.00 | 0.00 | 91 | 1004.4 |
| 20260509053921 | 75 | 102 | 4.0 | 6.0 | 0.00 | 0.00 | 0.00 | 91 | 1004.5 |
| 20260509053822 | 75 | 109 | 4.0 | 6.0 | 0.00 | 0.00 | 0.00 | 91 | 1004.5 |
| 20260509053722 | 75 | 110 | 4.0 | 6.0 | 0.00 | 0.00 | 0.00 | 91 | 1004.4 |
| 20260509053622 | 75 | 109 | 4.0 | 6.0 | 0.00 | 0.00 | 0.00 | 91 | 1004.5 |
| 20260509053521 | 75 | 107 | 3.0 | 5.0 | 0.00 | 0.00 | 0.00 | 91 | 1004.5 |
| 20260509053423 | 75 | 107 | 3.0 | 5.0 | 0.00 | 0.00 | 0.00 | 91 | 1004.5 |
| 20260509053322 | 75 | 102 | 3.0 | 5.0 | 0.00 | 0.00 | 0.00 | 91 | 1004.5 |
| 20260509053221 | 75 | 100 | 3.0 | 5.0 | 0.00 | 0.00 | 0.00 | 91 | 1004.5 |
| 20260509053123 | 75 | 100 | 3.0 | 5.0 | 0.00 | 0.00 | 0.00 | 91 | 1004.4 |
| 20260509053020 | 75 | 103 | 3.0 | 5.0 | 0.00 | 0.00 | 0.00 | 91 | 1004.4 |
| 20260509052911 | 75 | 104 | 3.0 | 5.0 | 0.00 | 0.00 | 0.00 | 91 | 1004.4 |
| 20260509052810 | 75 | 106 | 4.0 | 5.0 | 0.00 | 0.00 | 0.00 | 91 | 1004.4 |
| 20260509052708 | 75 | 106 | 4.0 | 5.0 | 0.00 | 0.00 | 0.00 | 91 | 1004.4 |
| 20260509052604 | 75 | 103 | 3.0 | 5.0 | 0.00 | 0.00 | 0.00 | 91 | 1004.5 |
| 20260509052504 | 75 | 103 | 3.0 | 5.0 | 0.00 | 0.00 | 0.00 | 91 | 1004.5 |
| 20260509052403 | 75 | 104 | 3.0 | 6.0 | 0.00 | 0.00 | 0.00 | 91 | 1004.6 |
| 20260509052306 | 75 | 94 | 3.0 | 6.0 | 0.00 | 0.00 | 0.00 | 91 | 1004.5 |
| 20260509052203 | 75 | 96 | 3.0 | 6.0 | 0.00 | 0.00 | 0.00 | 91 | 1004.6 |
| 20260509052102 | 75 | 93 | 3.0 | 6.0 | 0.00 | 0.00 | 0.00 | 91 | 1004.5 |
| 20260509052004 | 75 | 93 | 3.0 | 6.0 | 0.00 | 0.00 | 0.00 | 91 | 1004.6 |
| 20260509051902 | 75 | 93 | 3.0 | 6.0 | 0.00 | 0.00 | 0.00 | 91 | 1004.5 |
| 20260509051804 | 75 | 78 | 3.0 | 6.0 | 0.00 | 0.00 | 0.00 | 91 | 1004.5 |
| 20260509051702 | 75 | 100 | 4.0 | 7.0 | 0.00 | 0.00 | 0.00 | 91 | 1004.5 |
| 20260509051605 | 75 | 102 | 4.0 | 7.0 | 0.00 | 0.00 | 0.00 | 91 | 1004.5 |
| 20260509051504 | 75 | 110 | 4.0 | 7.0 | 0.00 | 0.00 | 0.00 | 91 | 1004.5 |
| 20260509051403 | 75 | 106 | 4.0 | 7.0 | 0.00 | 0.00 | 0.00 | 91 | 1004.5 |
| 20260509051305 | 75 | 102 | 3.0 | 7.0 | 0.00 | 0.00 | 0.00 | 91 | 1004.6 |
| 20260509051204 | 75 | 103 | 3.0 | 7.0 | 0.00 | 0.00 | 0.00 | 91 | 1004.6 |
| 20260509051102 | 75 | 103 | 4.0 | 7.0 | 0.00 | 0.00 | 0.00 | 91 | 1004.5 |
| 20260509051005 | 75 | 104 | 4.0 | 7.0 | 0.00 | 0.00 | 0.00 | 91 | 1004.6 |
| 20260509050902 | 75 | 97 | 5.0 | 7.0 | 0.00 | 0.00 | 0.00 | 91 | 1004.6 |
| 20260509050802 | 75 | 107 | 4.0 | 7.0 | 0.00 | 0.00 | 0.00 | 91 | 1004.6 |
| 20260509050703 | 75 | 94 | 4.0 | 6.0 | 0.00 | 0.00 | 0.00 | 91 | 1004.6 |
| 20260509050604 | 75 | 109 | 4.0 | 6.0 | 0.00 | 0.00 | 0.00 | 91 | 1004.6 |
| 20260509050504 | 75 | 94 | 3.0 | 5.0 | 0.00 | 0.00 | 0.00 | 91 | 1004.5 |
| 20260509050404 | 75 | 94 | 2.0 | 5.0 | 0.00 | 0.00 | 0.00 | 91 | 1004.5 |
| 20260509050301 | 75 | 94 | 2.0 | 5.0 | 0.00 | 0.00 | 0.00 | 91 | 1004.5 |
| 20260509050201 | 75 | 97 | 3.0 | 5.0 | 0.00 | 0.00 | 0.00 | 91 | 1004.5 |
| 20260509050004 | 75 | 96 | 3.0 | 7.0 | 0.00 | 0.00 | 0.00 | 91 | 1004.4 |
| 20260509045902 | 74 | 89 | 3.0 | 7.0 | 0.00 | 0.00 | 0.00 | 91 | 1004.4 |
| 20260509045803 | 75 | 89 | 2.0 | 7.0 | 0.00 | 0.00 | 0.00 | 91 | 1004.4 |
| 20260509045702 | 75 | 87 | 3.0 | 7.0 | 0.00 | 0.00 | 0.00 | 91 | 1004.5 |
| 20260509045603 | 75 | 89 | 3.0 | 7.0 | 0.00 | 0.00 | 0.00 | 91 | 1004.4 |
| 20260509045505 | 75 | 111 | 2.0 | 7.0 | 0.00 | 0.00 | 0.00 | 91 | 1004.4 |
| 20260509045402 | 75 | 99 | 2.0 | 7.0 | 0.00 | 0.00 | 0.00 | 91 | 1004.4 |
| 20260509045306 | 74 | 99 | 3.0 | 7.0 | 0.00 | 0.00 | 0.00 | 91 | 1004.4 |
| 20260509045202 | 75 | 97 | 4.0 | 7.0 | 0.00 | 0.00 | 0.00 | 91 | 1004.5 |
| 20260509045103 | 75 | 79 | 4.0 | 5.0 | 0.00 | 0.00 | 0.00 | 91 | 1004.5 |
| 20260509045003 | 74 | 102 | 4.0 | 6.0 | 0.00 | 0.00 | 0.00 | 91 | 1004.5 |
| 20260509044903 | 74 | 96 | 3.0 | 6.0 | 0.00 | 0.00 | 0.00 | 91 | 1004.5 |
| 20260509044804 | 74 | 94 | 4.0 | 6.0 | 0.00 | 0.00 | 0.00 | 91 | 1004.6 |
| 20260509044702 | 74 | 96 | 3.0 | 6.0 | 0.00 | 0.00 | 0.00 | 91 | 1004.5 |
| 20260509044603 | 74 | 85 | 4.0 | 6.0 | 0.00 | 0.00 | 0.00 | 91 | 1004.6 |
| 20260509044503 | 74 | 106 | 4.0 | 6.0 | 0.00 | 0.00 | 0.00 | 91 | 1004.6 |
| 20260509044402 | 74 | 103 | 3.0 | 6.0 | 0.00 | 0.00 | 0.00 | 91 | 1004.6 |
| 20260509044302 | 74 | 97 | 3.0 | 6.0 | 0.00 | 0.00 | 0.00 | 91 | 1004.6 |
| 20260509044202 | 75 | 99 | 3.0 | 6.0 | 0.00 | 0.00 | 0.00 | 91 | 1004.6 |
| 20260509044102 | 74 | 104 | 3.0 | 6.0 | 0.00 | 0.00 | 0.00 | 91 | 1004.6 |
| 20260509044002 | 74 | 100 | 3.0 | 5.0 | 0.00 | 0.00 | 0.00 | 91 | 1004.7 |
| 20260509043904 | 74 | 100 | 2.0 | 4.0 | 0.00 | 0.00 | 0.00 | 91 | 1004.7 |
| 20260509043804 | 74 | 102 | 2.0 | 5.0 | 0.00 | 0.00 | 0.00 | 91 | 1004.7 |
| 20260509043656 | 74 | 104 | 2.0 | 5.0 | 0.00 | 0.00 | 0.00 | 91 | 1004.7 |
| 20260509043556 | 74 | 106 | 2.0 | 5.0 | 0.00 | 0.00 | 0.00 | 91 | 1004.7 |
| 20260509043449 | 74 | 106 | 2.0 | 5.0 | 0.00 | 0.00 | 0.00 | 91 | 1004.7 |
| 20260509043343 | 74 | 104 | 2.0 | 5.0 | 0.00 | 0.00 | 0.00 | 91 | 1004.6 |
| 20260509043240 | 74 | 106 | 3.0 | 5.0 | 0.00 | 0.00 | 0.00 | 91 | 1004.6 |
| 20260509043139 | 74 | 104 | 3.0 | 5.0 | 0.00 | 0.00 | 0.00 | 91 | 1004.6 |
| 20260509043032 | 74 | 104 | 3.0 | 5.0 | 0.00 | 0.00 | 0.00 | 91 | 1004.6 |
| 20260509042932 | 74 | 104 | 3.0 | 5.0 | 0.00 | 0.00 | 0.00 | 91 | 1004.6 |
| 20260509042832 | 74 | 110 | 3.0 | 5.0 | 0.00 | 0.00 | 0.00 | 91 | 1004.6 |
| 20260509042732 | 74 | 110 | 3.0 | 5.0 | 0.00 | 0.00 | 0.00 | 91 | 1004.6 |
| 20260509042632 | 74 | 107 | 3.0 | 5.0 | 0.00 | 0.00 | 0.00 | 91 | 1004.7 |
| 20260509042533 | 74 | 107 | 3.0 | 5.0 | 0.00 | 0.00 | 0.00 | 91 | 1004.7 |
| 20260509042432 | 74 | 109 | 3.0 | 5.0 | 0.00 | 0.00 | 0.00 | 91 | 1004.6 |
| 20260509042332 | 74 | 109 | 2.0 | 5.0 | 0.00 | 0.00 | 0.00 | 91 | 1004.7 |
| 20260509042232 | 74 | 109 | 3.0 | 5.0 | 0.00 | 0.00 | 0.00 | 91 | 1004.7 |
| 20260509042133 | 74 | 110 | 4.0 | 5.0 | 0.00 | 0.00 | 0.00 | 91 | 1004.7 |
| 20260509042031 | 74 | 104 | 4.0 | 5.0 | 0.00 | 0.00 | 0.00 | 91 | 1004.7 |
| 20260509041931 | 74 | 104 | 3.0 | 5.0 | 0.00 | 0.00 | 0.00 | 91 | 1004.6 |
| 20260509041832 | 74 | 116 | 3.0 | 5.0 | 0.00 | 0.00 | 0.00 | 91 | 1004.6 |
| 20260509041733 | 74 | 116 | 4.0 | 5.0 | 0.00 | 0.00 | 0.00 | 91 | 1004.6 |
| 20260509041632 | 74 | 118 | 4.0 | 5.0 | 0.00 | 0.00 | 0.00 | 91 | 1004.7 |
| 20260509041532 | 74 | 110 | 4.0 | 5.0 | 0.00 | 0.00 | 0.00 | 91 | 1004.6 |
| 20260509041432 | 74 | 117 | 4.0 | 5.0 | 0.00 | 0.00 | 0.00 | 91 | 1004.5 |
| 20260509041332 | 74 | 109 | 3.0 | 6.0 | 0.00 | 0.00 | 0.00 | 91 | 1004.6 |
| 20260509041232 | 74 | 110 | 3.0 | 6.0 | 0.00 | 0.00 | 0.00 | 91 | 1004.6 |
| 20260509041132 | 74 | 111 | 3.0 | 6.0 | 0.00 | 0.00 | 0.00 | 91 | 1004.5 |
| 20260509041033 | 74 | 142 | 3.0 | 6.0 | 0.00 | 0.00 | 0.00 | 91 | 1004.6 |
| 20260509040932 | 74 | 142 | 3.0 | 6.0 | 0.00 | 0.00 | 0.00 | 91 | 1004.5 |
| 20260509040832 | 74 | 111 | 3.0 | 6.0 | 0.00 | 0.00 | 0.00 | 91 | 1004.6 |
| 20260509040732 | 74 | 113 | 3.0 | 6.0 | 0.00 | 0.00 | 0.00 | 91 | 1004.5 |
| 20260509040633 | 74 | 113 | 2.0 | 6.0 | 0.00 | 0.00 | 0.00 | 91 | 1004.5 |
| 20260509040531 | 74 | 113 | 4.0 | 6.0 | 0.00 | 0.00 | 0.00 | 91 | 1004.5 |
| 20260509040433 | 74 | 114 | 5.0 | 6.0 | 0.00 | 0.00 | 0.00 | 91 | 1004.6 |
| 20260509040331 | 74 | 103 | 5.0 | 6.0 | 0.00 | 0.00 | 0.00 | 91 | 1004.5 |
| 20260509040232 | 74 | 100 | 4.0 | 6.0 | 0.00 | 0.00 | 0.00 | 91 | 1004.5 |
| 20260509040132 | 74 | 111 | 4.0 | 4.0 | 0.00 | 0.00 | 0.00 | 91 | 1004.5 |
| 20260509040022 | 74 | 113 | 3.0 | 5.0 | 0.00 | 0.00 | 0.00 | 91 | 1004.4 |
| 20260509035918 | 74 | 110 | 2.0 | 5.0 | 0.00 | 0.00 | 0.00 | 91 | 1004.4 |
| 20260509035819 | 74 | 110 | 1.0 | 5.0 | 0.00 | 0.00 | 0.00 | 90 | 1004.5 |
| 20260509035719 | 74 | 107 | 2.0 | 5.0 | 0.00 | 0.00 | 0.00 | 90 | 1004.5 |
| 20260509035613 | 74 | 107 | 2.0 | 5.0 | 0.00 | 0.00 | 0.00 | 90 | 1004.4 |
| 20260509035511 | 74 | 109 | 2.0 | 5.0 | 0.00 | 0.00 | 0.00 | 90 | 1004.4 |
| 20260509035410 | 74 | 106 | 3.0 | 5.0 | 0.00 | 0.00 | 0.00 | 90 | 1004.4 |
| 20260509035307 | 74 | 106 | 3.0 | 6.0 | 0.00 | 0.00 | 0.00 | 90 | 1004.4 |
| 20260509035207 | 74 | 102 | 3.0 | 7.0 | 0.00 | 0.00 | 0.00 | 90 | 1004.3 |
| 20260509035103 | 74 | 100 | 3.0 | 7.0 | 0.00 | 0.00 | 0.00 | 90 | 1004.4 |
| 20260509035003 | 74 | 104 | 3.0 | 7.0 | 0.00 | 0.00 | 0.00 | 90 | 1004.3 |
| 20260509034902 | 74 | 104 | 3.0 | 7.0 | 0.00 | 0.00 | 0.00 | 90 | 1004.3 |
| 20260509034803 | 74 | 90 | 4.0 | 7.0 | 0.00 | 0.00 | 0.00 | 90 | 1004.2 |
| 20260509034703 | 74 | 96 | 4.0 | 7.0 | 0.00 | 0.00 | 0.00 | 90 | 1004.2 |
| 20260509034604 | 74 | 97 | 4.0 | 7.0 | 0.00 | 0.00 | 0.00 | 90 | 1004.2 |
| 20260509034504 | 74 | 106 | 5.0 | 7.0 | 0.00 | 0.00 | 0.00 | 90 | 1004.1 |
| 20260509034401 | 74 | 111 | 5.0 | 7.0 | 0.00 | 0.00 | 0.00 | 90 | 1004.2 |
| 20260509034303 | 74 | 107 | 6.0 | 7.0 | 0.00 | 0.00 | 0.00 | 90 | 1004.1 |
| 20260509034204 | 74 | 113 | 5.0 | 7.0 | 0.00 | 0.00 | 0.00 | 90 | 1004.2 |
| 20260509034103 | 74 | 104 | 5.0 | 7.0 | 0.00 | 0.00 | 0.00 | 90 | 1004.2 |
| 20260509034002 | 74 | 94 | 4.0 | 7.0 | 0.00 | 0.00 | 0.00 | 90 | 1004.1 |
| 20260509033903 | 74 | 107 | 4.0 | 7.0 | 0.00 | 0.00 | 0.00 | 90 | 1004.1 |
| 20260509033803 | 74 | 131 | 4.0 | 7.0 | 0.00 | 0.00 | 0.00 | 90 | 1004.1 |
| 20260509033704 | 74 | 103 | 4.0 | 10.0 | 0.00 | 0.00 | 0.00 | 90 | 1004.1 |
| 20260509033604 | 74 | 103 | 4.0 | 11.0 | 0.00 | 0.00 | 0.00 | 90 | 1004.1 |
| 20260509033502 | 74 | 102 | 4.0 | 11.0 | 0.00 | 0.00 | 0.00 | 90 | 1004.1 |
| 20260509033403 | 74 | 104 | 5.0 | 11.0 | 0.00 | 0.00 | 0.00 | 90 | 1004.1 |
| 20260509033302 | 74 | 85 | 3.0 | 11.0 | 0.00 | 0.00 | 0.00 | 90 | 1004.2 |
| 20260509033202 | 74 | 90 | 3.0 | 11.0 | 0.00 | 0.00 | 0.00 | 90 | 1004.2 |
| 20260509033103 | 74 | 133 | 4.0 | 11.0 | 0.00 | 0.00 | 0.00 | 90 | 1004.1 |
| 20260509033002 | 74 | 113 | 4.0 | 11.0 | 0.00 | 0.00 | 0.00 | 90 | 1004.1 |
| 20260509032903 | 74 | 73 | 5.0 | 11.0 | 0.00 | 0.00 | 0.00 | 90 | 1004.2 |
| 20260509032802 | 74 | 90 | 6.0 | 11.0 | 0.00 | 0.00 | 0.00 | 90 | 1004.1 |
| 20260509032703 | 74 | 83 | 6.0 | 11.0 | 0.00 | 0.00 | 0.00 | 90 | 1004.1 |
| 20260509032602 | 74 | 106 | 5.0 | 7.0 | 0.00 | 0.00 | 0.00 | 90 | 1004.1 |
| 20260509032502 | 74 | 106 | 5.0 | 7.0 | 0.00 | 0.00 | 0.00 | 90 | 1004.1 |
| 20260509032404 | 74 | 107 | 5.0 | 7.0 | 0.00 | 0.00 | 0.00 | 90 | 1004.0 |
| 20260509032306 | 74 | 93 | 5.0 | 7.0 | 0.00 | 0.00 | 0.00 | 90 | 1004.1 |
| 20260509032203 | 74 | 85 | 5.0 | 7.0 | 0.00 | 0.00 | 0.00 | 90 | 1004.1 |
| 20260509032105 | 74 | 109 | 4.0 | 6.0 | 0.00 | 0.00 | 0.00 | 90 | 1004.0 |
| 20260509032005 | 74 | 86 | 3.0 | 6.0 | 0.00 | 0.00 | 0.00 | 90 | 1004.0 |
| 20260509031902 | 74 | 96 | 3.0 | 5.0 | 0.00 | 0.00 | 0.00 | 90 | 1004.1 |
| 20260509031802 | 74 | 104 | 2.0 | 7.0 | 0.00 | 0.00 | 0.00 | 90 | 1004.0 |
| 20260509031703 | 74 | 104 | 3.0 | 7.0 | 0.00 | 0.00 | 0.00 | 90 | 1004.0 |
| 20260509031604 | 74 | 103 | 3.0 | 7.0 | 0.00 | 0.00 | 0.00 | 90 | 1004.0 |
| 20260509031504 | 74 | 99 | 3.0 | 7.0 | 0.00 | 0.00 | 0.00 | 90 | 1004.0 |
| 20260509031403 | 74 | 100 | 3.0 | 7.0 | 0.00 | 0.00 | 0.00 | 90 | 1004.1 |
| 20260509031302 | 74 | 106 | 3.0 | 7.0 | 0.00 | 0.00 | 0.00 | 90 | 1004.2 |
| 20260509031203 | 74 | 110 | 4.0 | 7.0 | 0.00 | 0.00 | 0.00 | 90 | 1004.2 |
| 20260509031102 | 74 | 113 | 4.0 | 7.0 | 0.00 | 0.00 | 0.00 | 90 | 1004.1 |
| 20260509031004 | 74 | 100 | 5.0 | 7.0 | 0.00 | 0.00 | 0.00 | 90 | 1004.1 |
| 20260509030903 | 74 | 87 | 5.0 | 7.0 | 0.00 | 0.00 | 0.00 | 90 | 1004.1 |
| 20260509030803 | 74 | 99 | 4.0 | 7.0 | 0.00 | 0.00 | 0.00 | 90 | 1004.1 |
| 20260509030702 | 74 | 90 | 4.0 | 7.0 | 0.00 | 0.00 | 0.00 | 90 | 1004.0 |
| 20260509030602 | 74 | 93 | 4.0 | 7.0 | 0.00 | 0.00 | 0.00 | 90 | 1004.1 |
| 20260509030504 | 74 | 87 | 4.0 | 7.0 | 0.00 | 0.00 | 0.00 | 90 | 1004.0 |
| 20260509030403 | 74 | 100 | 5.0 | 7.0 | 0.00 | 0.00 | 0.00 | 90 | 1004.0 |
| 20260509030303 | 74 | 71 | 3.0 | 6.0 | 0.00 | 0.00 | 0.00 | 90 | 1004.1 |
| 20260509030205 | 74 | 99 | 2.0 | 7.0 | 0.00 | 0.00 | 0.00 | 90 | 1004.1 |
| 20260509030004 | 74 | 92 | 2.0 | 7.0 | 0.00 | 0.00 | 0.00 | 90 | 1004.0 |
| 20260509025902 | 74 | 93 | 2.0 | 7.0 | 0.00 | 0.00 | 0.00 | 90 | 1004.0 |
| 20260509025803 | 74 | 92 | 3.0 | 7.0 | 0.00 | 0.00 | 0.00 | 90 | 1004.0 |
| 20260509025702 | 74 | 94 | 4.0 | 7.0 | 0.00 | 0.00 | 0.00 | 90 | 1004.0 |
| 20260509025603 | 74 | 87 | 4.0 | 7.0 | 0.00 | 0.00 | 0.00 | 90 | 1003.9 |
| 20260509025503 | 74 | 89 | 4.0 | 7.0 | 0.00 | 0.00 | 0.00 | 90 | 1004.0 |
| 20260509025403 | 74 | 103 | 4.0 | 7.0 | 0.00 | 0.00 | 0.00 | 90 | 1004.0 |
| 20260509025306 | 74 | 93 | 4.0 | 7.0 | 0.00 | 0.00 | 0.00 | 90 | 1004.0 |
| 20260509025203 | 74 | 110 | 3.0 | 6.0 | 0.00 | 0.00 | 0.00 | 90 | 1004.0 |
| 20260509025103 | 74 | 110 | 3.0 | 6.0 | 0.00 | 0.00 | 0.00 | 90 | 1004.0 |
| 20260509025004 | 74 | 97 | 2.0 | 6.0 | 0.00 | 0.00 | 0.00 | 90 | 1004.0 |
| 20260509024903 | 74 | 97 | 3.0 | 6.0 | 0.00 | 0.00 | 0.00 | 90 | 1004.0 |
| 20260509024803 | 74 | 96 | 3.0 | 6.0 | 0.00 | 0.00 | 0.00 | 90 | 1004.0 |
| 20260509024704 | 74 | 92 | 2.0 | 6.0 | 0.00 | 0.00 | 0.00 | 90 | 1004.1 |
| 20260509024604 | 74 | 90 | 2.0 | 6.0 | 0.00 | 0.00 | 0.00 | 90 | 1004.1 |
| 20260509024503 | 74 | 89 | 2.0 | 6.0 | 0.00 | 0.00 | 0.00 | 90 | 1004.1 |
| 20260509024404 | 74 | 89 | 3.0 | 6.0 | 0.00 | 0.00 | 0.00 | 90 | 1004.0 |
| 20260509024304 | 74 | 85 | 2.0 | 6.0 | 0.00 | 0.00 | 0.00 | 90 | 1004.0 |
| 20260509024204 | 74 | 94 | 2.0 | 4.0 | 0.00 | 0.00 | 0.00 | 90 | 1004.0 |
| 20260509024103 | 74 | 94 | 2.0 | 4.0 | 0.00 | 0.00 | 0.00 | 90 | 1003.9 |
| 20260509024001 | 74 | 94 | 1.0 | 4.0 | 0.00 | 0.00 | 0.00 | 90 | 1003.9 |
| 20260509023903 | 74 | 96 | 2.0 | 4.0 | 0.00 | 0.00 | 0.00 | 90 | 1003.9 |
| 20260509023803 | 74 | 96 | 2.0 | 4.0 | 0.00 | 0.00 | 0.00 | 90 | 1003.8 |
| 20260509023704 | 74 | 96 | 1.0 | 4.0 | 0.00 | 0.00 | 0.00 | 90 | 1003.8 |
| 20260509023604 | 74 | 96 | 2.0 | 4.0 | 0.00 | 0.00 | 0.00 | 90 | 1003.9 |
| 20260509023505 | 74 | 86 | 2.0 | 4.0 | 0.00 | 0.00 | 0.00 | 90 | 1003.9 |
| 20260509023403 | 74 | 86 | 2.0 | 4.0 | 0.00 | 0.00 | 0.00 | 90 | 1003.9 |
| 20260509023303 | 74 | 90 | 2.0 | 4.0 | 0.00 | 0.00 | 0.00 | 90 | 1003.9 |
| 20260509023203 | 74 | 89 | 2.0 | 4.0 | 0.00 | 0.00 | 0.00 | 90 | 1003.8 |
| 20260509023103 | 74 | 89 | 2.0 | 4.0 | 0.00 | 0.00 | 0.00 | 90 | 1003.8 |
| 20260509023003 | 74 | 89 | 1.0 | 5.0 | 0.00 | 0.00 | 0.00 | 90 | 1003.9 |
| 20260509022903 | 74 | 87 | 2.0 | 5.0 | 0.00 | 0.00 | 0.00 | 90 | 1003.8 |
| 20260509022803 | 74 | 87 | 2.0 | 5.0 | 0.00 | 0.00 | 0.00 | 90 | 1003.7 |
| 20260509022704 | 74 | 85 | 3.0 | 5.0 | 0.00 | 0.00 | 0.00 | 90 | 1003.7 |
| 20260509022603 | 74 | 85 | 3.0 | 5.0 | 0.00 | 0.00 | 0.00 | 90 | 1003.7 |
| 20260509022503 | 74 | 83 | 2.0 | 5.0 | 0.00 | 0.00 | 0.00 | 90 | 1003.7 |
| 20260509022403 | 74 | 80 | 1.0 | 5.0 | 0.00 | 0.00 | 0.00 | 90 | 1003.7 |
| 20260509022306 | 74 | 82 | 2.0 | 5.0 | 0.00 | 0.00 | 0.00 | 90 | 1003.7 |
| 20260509022203 | 74 | 89 | 2.0 | 5.0 | 0.00 | 0.00 | 0.00 | 90 | 1003.7 |
| 20260509022105 | 74 | 89 | 2.0 | 5.0 | 0.00 | 0.00 | 0.00 | 90 | 1003.8 |
| 20260509022005 | 74 | 85 | 2.0 | 5.0 | 0.00 | 0.00 | 0.00 | 90 | 1003.8 |
| 20260509021903 | 74 | 83 | 2.0 | 5.0 | 0.00 | 0.00 | 0.00 | 90 | 1003.7 |
| 20260509021803 | 74 | 87 | 2.0 | 5.0 | 0.00 | 0.00 | 0.00 | 90 | 1003.7 |
| 20260509021703 | 74 | 87 | 2.0 | 5.0 | 0.00 | 0.00 | 0.00 | 90 | 1003.7 |
| 20260509021604 | 74 | 89 | 2.0 | 5.0 | 0.00 | 0.00 | 0.00 | 90 | 1003.7 |
| 20260509021504 | 74 | 87 | 2.0 | 5.0 | 0.00 | 0.00 | 0.00 | 90 | 1003.7 |
| 20260509021403 | 74 | 87 | 2.0 | 5.0 | 0.00 | 0.00 | 0.00 | 90 | 1003.7 |
| 20260509021303 | 74 | 63 | 1.0 | 5.0 | 0.00 | 0.00 | 0.00 | 90 | 1003.6 |
| 20260509021202 | 74 | 83 | 1.0 | 3.0 | 0.00 | 0.00 | 0.00 | 90 | 1003.6 |
| 20260509021104 | 74 | 83 | 1.0 | 3.0 | 0.00 | 0.00 | 0.00 | 90 | 1003.5 |
| 20260509021004 | 74 | 83 | 1.0 | 4.0 | 0.00 | 0.00 | 0.00 | 90 | 1003.6 |
| 20260509020904 | 74 | 82 | 1.0 | 4.0 | 0.00 | 0.00 | 0.00 | 90 | 1003.6 |
| 20260509020802 | 74 | 82 | 1.0 | 4.0 | 0.00 | 0.00 | 0.00 | 90 | 1003.5 |
| 20260509020704 | 74 | 82 | 1.0 | 4.0 | 0.00 | 0.00 | 0.00 | 90 | 1003.5 |
| 20260509020602 | 74 | 82 | 1.0 | 4.0 | 0.00 | 0.00 | 0.00 | 90 | 1003.5 |
| 20260509020504 | 74 | 83 | 1.0 | 4.0 | 0.00 | 0.00 | 0.00 | 90 | 1003.5 |
| 20260509020403 | 74 | 83 | 0.0 | 4.0 | 0.00 | 0.00 | 0.00 | 90 | 1003.6 |
| 20260509020303 | 74 | 83 | 0.0 | 4.0 | 0.00 | 0.00 | 0.00 | 90 | 1003.5 |
| 20260509020203 | 74 | 82 | 2.0 | 4.0 | 0.00 | 0.00 | 0.00 | 90 | 1003.5 |
| 20260509020104 | 74 | 82 | 2.0 | 4.0 | 0.00 | 0.00 | 0.00 | 90 | 1003.4 |
| 20260509020002 | 74 | 82 | 1.0 | 4.0 | 0.00 | 0.00 | 0.00 | 90 | 1003.4 |
| 20260509015905 | 74 | 79 | 2.0 | 4.0 | 0.00 | 0.00 | 0.00 | 90 | 1003.4 |
| 20260509015802 | 74 | 79 | 2.0 | 4.0 | 0.00 | 0.00 | 0.00 | 90 | 1003.4 |
| 20260509015703 | 74 | 82 | 1.0 | 4.0 | 0.00 | 0.00 | 0.00 | 90 | 1003.5 |
| 20260509015603 | 74 | 59 | 1.0 | 4.0 | 0.00 | 0.00 | 0.00 | 90 | 1003.4 |
| 20260509015505 | 74 | 51 | 2.0 | 4.0 | 0.00 | 0.00 | 0.00 | 90 | 1003.4 |
| 20260509015403 | 74 | 110 | 2.0 | 4.0 | 0.00 | 0.00 | 0.00 | 90 | 1003.4 |
| 20260509015305 | 74 | 80 | 1.0 | 4.0 | 0.00 | 0.00 | 0.00 | 90 | 1003.5 |
| 20260509015203 | 74 | 30 | 0.0 | 4.0 | 0.00 | 0.00 | 0.00 | 90 | 1003.5 |
| 20260509015103 | 74 | 30 | 0.0 | 4.0 | 0.00 | 0.00 | 0.00 | 90 | 1003.5 |
| 20260509015003 | 74 | 30 | 0.0 | 6.0 | 0.00 | 0.00 | 0.00 | 90 | 1003.5 |
| 20260509014903 | 74 | 30 | 1.0 | 6.0 | 0.00 | 0.00 | 0.00 | 90 | 1003.5 |
| 20260509014803 | 74 | 31 | 1.0 | 6.0 | 0.00 | 0.00 | 0.00 | 90 | 1003.5 |
| 20260509014703 | 74 | 31 | 1.0 | 6.0 | 0.00 | 0.00 | 0.00 | 90 | 1003.4 |
| 20260509014602 | 74 | 31 | 2.0 | 6.0 | 0.00 | 0.00 | 0.00 | 90 | 1003.5 |
| 20260509014503 | 74 | 49 | 2.0 | 6.0 | 0.00 | 0.00 | 0.00 | 90 | 1003.5 |
| 20260509014402 | 74 | 49 | 2.0 | 6.0 | 0.00 | 0.00 | 0.00 | 90 | 1003.4 |
| 20260509014304 | 74 | 49 | 2.0 | 6.0 | 0.00 | 0.00 | 0.00 | 90 | 1003.4 |
| 20260509014203 | 74 | 48 | 2.0 | 6.0 | 0.00 | 0.00 | 0.00 | 90 | 1003.3 |
| 20260509014102 | 74 | 51 | 1.0 | 6.0 | 0.00 | 0.00 | 0.00 | 90 | 1003.3 |
| 20260509014004 | 74 | 63 | 2.0 | 6.0 | 0.00 | 0.00 | 0.00 | 90 | 1003.4 |
| 20260509013903 | 74 | 61 | 3.0 | 6.0 | 0.00 | 0.00 | 0.00 | 90 | 1003.4 |
| 20260509013802 | 74 | 103 | 2.0 | 6.0 | 0.00 | 0.00 | 0.00 | 90 | 1003.5 |
| 20260509013701 | 74 | 99 | 2.0 | 6.0 | 0.00 | 0.00 | 0.00 | 89 | 1003.4 |
| 20260509013602 | 74 | 102 | 2.0 | 6.0 | 0.00 | 0.00 | 0.00 | 89 | 1003.5 |
| 20260509013504 | 74 | 109 | 2.0 | 6.0 | 0.00 | 0.00 | 0.00 | 89 | 1003.5 |
| 20260509013403 | 74 | 118 | 2.0 | 6.0 | 0.00 | 0.00 | 0.00 | 89 | 1003.4 |
| 20260509013303 | 74 | 118 | 4.0 | 6.0 | 0.00 | 0.00 | 0.00 | 89 | 1003.4 |
| 20260509013204 | 74 | 103 | 3.0 | 6.0 | 0.00 | 0.00 | 0.00 | 89 | 1003.5 |
| 20260509013102 | 74 | 85 | 2.0 | 5.0 | 0.00 | 0.00 | 0.00 | 89 | 1003.4 |
| 20260509013004 | 74 | 51 | 2.0 | 5.0 | 0.00 | 0.00 | 0.00 | 89 | 1003.4 |
| 20260509012902 | 74 | 97 | 1.0 | 5.0 | 0.00 | 0.00 | 0.00 | 89 | 1003.4 |
| 20260509012803 | 74 | 94 | 2.0 | 5.0 | 0.00 | 0.00 | 0.00 | 89 | 1003.5 |
| 20260509012704 | 74 | 71 | 2.0 | 5.0 | 0.00 | 0.00 | 0.00 | 89 | 1003.5 |
| 20260509012604 | 74 | 59 | 3.0 | 6.0 | 0.00 | 0.00 | 0.00 | 89 | 1003.4 |
| 20260509012504 | 74 | 144 | 2.0 | 6.0 | 0.00 | 0.00 | 0.00 | 89 | 1003.4 |
| 20260509012403 | 74 | 54 | 1.0 | 6.0 | 0.00 | 0.00 | 0.00 | 89 | 1003.4 |
| 20260509012306 | 74 | 63 | 2.0 | 6.0 | 0.00 | 0.00 | 0.00 | 89 | 1003.3 |
| 20260509012204 | 74 | 103 | 3.0 | 6.0 | 0.00 | 0.00 | 0.00 | 89 | 1003.3 |
| 20260509012102 | 74 | 86 | 2.0 | 6.0 | 0.00 | 0.00 | 0.00 | 89 | 1003.3 |
| 20260509012004 | 74 | 106 | 2.0 | 6.0 | 0.00 | 0.00 | 0.00 | 89 | 1003.4 |
| 20260509011904 | 74 | 97 | 3.0 | 6.0 | 0.00 | 0.00 | 0.00 | 89 | 1003.4 |
| 20260509011803 | 74 | 99 | 4.0 | 7.0 | 0.00 | 0.00 | 0.00 | 89 | 1003.4 |
| 20260509011702 | 74 | 75 | 4.0 | 7.0 | 0.00 | 0.00 | 0.00 | 89 | 1003.4 |
| 20260509011602 | 74 | 92 | 3.0 | 7.0 | 0.00 | 0.00 | 0.00 | 89 | 1003.4 |
| 20260509011502 | 74 | 90 | 4.0 | 7.0 | 0.00 | 0.00 | 0.00 | 89 | 1003.3 |
| 20260509011404 | 74 | 96 | 4.0 | 7.0 | 0.00 | 0.00 | 0.00 | 89 | 1003.3 |
| 20260509011303 | 74 | 94 | 4.0 | 7.0 | 0.00 | 0.00 | 0.00 | 89 | 1003.3 |
| 20260509011202 | 74 | 102 | 3.0 | 10.0 | 0.00 | 0.00 | 0.00 | 89 | 1003.3 |
| 20260509011104 | 74 | 123 | 4.0 | 10.0 | 0.00 | 0.00 | 0.00 | 89 | 1003.3 |
| 20260509011002 | 74 | 107 | 4.0 | 10.0 | 0.00 | 0.00 | 0.00 | 89 | 1003.3 |
| 20260509010901 | 74 | 102 | 4.0 | 10.0 | 0.00 | 0.00 | 0.00 | 89 | 1003.3 |
| 20260509010802 | 74 | 86 | 5.0 | 10.0 | 0.00 | 0.00 | 0.00 | 89 | 1003.3 |
| 20260509010702 | 74 | 97 | 5.0 | 10.0 | 0.00 | 0.00 | 0.00 | 89 | 1003.3 |
| 20260509010604 | 74 | 103 | 3.0 | 10.0 | 0.00 | 0.00 | 0.00 | 89 | 1003.3 |
| 20260509010504 | 74 | 114 | 3.0 | 10.0 | 0.00 | 0.00 | 0.00 | 89 | 1003.4 |
| 20260509010404 | 74 | 103 | 4.0 | 10.0 | 0.00 | 0.00 | 0.00 | 89 | 1003.3 |
| 20260509010302 | 74 | 90 | 4.0 | 10.0 | 0.00 | 0.00 | 0.00 | 89 | 1003.3 |
| 20260509010203 | 74 | 96 | 3.0 | 7.0 | 0.00 | 0.00 | 0.00 | 89 | 1003.3 |
| 20260509010006 | 74 | 128 | 3.0 | 7.0 | 0.00 | 0.00 | 0.00 | 89 | 1003.2 |
| 20260509005904 | 74 | 97 | 4.0 | 7.0 | 0.00 | 0.00 | 0.00 | 89 | 1003.3 |
| 20260509005803 | 74 | 97 | 4.0 | 7.0 | 0.00 | 0.00 | 0.00 | 89 | 1003.3 |
| 20260509005703 | 74 | 99 | 4.0 | 7.0 | 0.00 | 0.00 | 0.00 | 89 | 1003.3 |
| 20260509005602 | 74 | 107 | 4.0 | 7.0 | 0.00 | 0.00 | 0.00 | 89 | 1003.2 |
| 20260509005505 | 74 | 85 | 4.0 | 7.0 | 0.00 | 0.00 | 0.00 | 89 | 1003.3 |
| 20260509005404 | 74 | 83 | 3.0 | 7.0 | 0.00 | 0.00 | 0.00 | 89 | 1003.3 |
| 20260509005305 | 74 | 99 | 2.0 | 7.0 | 0.00 | 0.00 | 0.00 | 89 | 1003.3 |
| 20260509005202 | 74 | 89 | 3.0 | 7.0 | 0.00 | 0.00 | 0.00 | 89 | 1003.3 |
| 20260509005103 | 74 | 85 | 4.0 | 7.0 | 0.00 | 0.00 | 0.00 | 89 | 1003.3 |
| 20260509005004 | 74 | 79 | 5.0 | 7.0 | 0.00 | 0.00 | 0.00 | 89 | 1003.3 |
| 20260509004903 | 74 | 117 | 4.0 | 6.0 | 0.00 | 0.00 | 0.00 | 89 | 1003.3 |
| 20260509004804 | 74 | 59 | 4.0 | 6.0 | 0.00 | 0.00 | 0.00 | 89 | 1003.2 |
| 20260509004704 | 74 | 86 | 4.0 | 6.0 | 0.00 | 0.00 | 0.00 | 89 | 1003.2 |
| 20260509004602 | 74 | 102 | 2.0 | 6.0 | 0.00 | 0.00 | 0.00 | 89 | 1003.2 |
| 20260509004503 | 74 | 96 | 2.0 | 6.0 | 0.00 | 0.00 | 0.00 | 89 | 1003.2 |
| 20260509004403 | 74 | 96 | 3.0 | 6.0 | 0.00 | 0.00 | 0.00 | 89 | 1003.1 |
| 20260509004303 | 74 | 93 | 3.0 | 6.0 | 0.00 | 0.00 | 0.00 | 89 | 1003.1 |
| 20260509004205 | 74 | 89 | 3.0 | 6.0 | 0.00 | 0.00 | 0.00 | 89 | 1003.1 |
| 20260509004102 | 74 | 89 | 2.0 | 6.0 | 0.00 | 0.00 | 0.00 | 89 | 1003.2 |
| 20260509004003 | 74 | 92 | 2.0 | 6.0 | 0.00 | 0.00 | 0.00 | 89 | 1003.2 |
| 20260509003903 | 74 | 92 | 4.0 | 6.0 | 0.00 | 0.00 | 0.00 | 89 | 1003.2 |
| 20260509003804 | 74 | 78 | 3.0 | 6.0 | 0.00 | 0.00 | 0.00 | 89 | 1003.2 |
| 20260509003703 | 74 | 65 | 4.0 | 6.0 | 0.00 | 0.00 | 0.00 | 89 | 1003.3 |
| 20260509003602 | 74 | 65 | 4.0 | 6.0 | 0.00 | 0.00 | 0.00 | 89 | 1003.3 |
| 20260509003504 | 74 | 86 | 2.0 | 7.0 | 0.00 | 0.00 | 0.00 | 89 | 1003.2 |
| 20260509003404 | 74 | 102 | 2.0 | 7.0 | 0.00 | 0.00 | 0.00 | 89 | 1003.2 |
| 20260509003304 | 74 | 102 | 2.0 | 7.0 | 0.00 | 0.00 | 0.00 | 89 | 1003.3 |
| 20260509003203 | 74 | 79 | 2.0 | 7.0 | 0.00 | 0.00 | 0.00 | 89 | 1003.3 |
| 20260509003102 | 74 | 82 | 2.0 | 7.0 | 0.00 | 0.00 | 0.00 | 89 | 1003.2 |
| 20260509003004 | 74 | 82 | 2.0 | 7.0 | 0.00 | 0.00 | 0.00 | 89 | 1003.2 |
| 20260509002903 | 74 | 72 | 2.0 | 7.0 | 0.00 | 0.00 | 0.00 | 89 | 1003.2 |
| 20260509002803 | 74 | 72 | 3.0 | 7.0 | 0.00 | 0.00 | 0.00 | 89 | 1003.2 |
| 20260509002702 | 74 | 100 | 4.0 | 7.0 | 0.00 | 0.00 | 0.00 | 89 | 1003.3 |
| 20260509002603 | 74 | 85 | 5.0 | 7.0 | 0.00 | 0.00 | 0.00 | 89 | 1003.2 |
| 20260509002504 | 74 | 97 | 6.0 | 7.0 | 0.00 | 0.00 | 0.00 | 89 | 1003.2 |
| 20260509002404 | 74 | 90 | 5.0 | 7.0 | 0.00 | 0.00 | 0.00 | 89 | 1003.2 |
| 20260509002305 | 74 | 80 | 4.0 | 7.0 | 0.00 | 0.00 | 0.00 | 89 | 1003.2 |
| 20260509002202 | 74 | 82 | 3.0 | 6.0 | 0.00 | 0.00 | 0.00 | 89 | 1003.3 |
| 20260509002102 | 74 | 103 | 4.0 | 7.0 | 0.00 | 0.00 | 0.00 | 89 | 1003.2 |
| 20260509002003 | 74 | 90 | 4.0 | 9.0 | 0.00 | 0.00 | 0.00 | 89 | 1003.2 |
| 20260509001902 | 74 | 86 | 3.0 | 9.0 | 0.00 | 0.00 | 0.00 | 89 | 1003.2 |
| 20260509001803 | 74 | 100 | 3.0 | 9.0 | 0.00 | 0.00 | 0.00 | 89 | 1003.2 |
| 20260509001702 | 74 | 100 | 2.0 | 9.0 | 0.00 | 0.00 | 0.00 | 89 | 1003.2 |
| 20260509001602 | 74 | 100 | 2.0 | 9.0 | 0.00 | 0.00 | 0.00 | 89 | 1003.2 |
| 20260509001502 | 74 | 90 | 3.0 | 9.0 | 0.00 | 0.00 | 0.00 | 89 | 1003.2 |
| 20260509001403 | 74 | 104 | 4.0 | 9.0 | 0.00 | 0.00 | 0.00 | 89 | 1003.3 |
| 20260509001258 | 74 | 90 | 4.0 | 9.0 | 0.00 | 0.00 | 0.00 | 89 | 1003.3 |
| 20260509001152 | 74 | 87 | 4.0 | 9.0 | 0.00 | 0.00 | 0.00 | 89 | 1003.2 |
| 20260509001046 | 74 | 97 | 4.0 | 9.0 | 0.00 | 0.00 | 0.00 | 89 | 1003.2 |
| 20260509000947 | 74 | 111 | 3.0 | 5.0 | 0.00 | 0.00 | 0.00 | 89 | 1003.2 |
| 20260509000841 | 74 | 92 | 2.0 | 5.0 | 0.00 | 0.00 | 0.00 | 89 | 1003.3 |
| 20260509000740 | 74 | 90 | 2.0 | 5.0 | 0.00 | 0.00 | 0.00 | 89 | 1003.2 |
| 20260509000637 | 74 | 90 | 2.0 | 5.0 | 0.00 | 0.00 | 0.00 | 89 | 1003.2 |
| 20260509000531 | 74 | 90 | 3.0 | 5.0 | 0.00 | 0.00 | 0.00 | 89 | 1003.3 |
| 20260509000432 | 74 | 102 | 2.0 | 5.0 | 0.00 | 0.00 | 0.00 | 89 | 1003.4 |
| 20260509000330 | 74 | 96 | 1.0 | 5.0 | 0.00 | 0.00 | 0.00 | 89 | 1003.3 |
| 20260509000223 | 74 | 97 | 1.0 | 5.0 | 0.00 | 0.00 | 0.00 | 89 | 1003.4 |
| 20260509000119 | 74 | 71 | 1.0 | 5.0 | 0.00 | 0.00 | 0.00 | 89 | 1003.4 |
| 20260509000016 | 74 | 71 | 1.0 | 5.0 | 0.00 | 0.00 | 0.00 | 89 | 1003.3 |
| 20260508235913 | 74 | 68 | 1.0 | 5.0 | 0.00 | 0.00 | 0.00 | 89 | 1003.4 |
| 20260508235815 | 74 | 68 | 1.0 | 5.0 | 0.00 | 0.00 | 0.00 | 89 | 1003.4 |
| 20260508235713 | 74 | 66 | 2.0 | 5.0 | 0.00 | 0.00 | 0.00 | 89 | 1003.4 |
| 20260508235614 | 74 | 65 | 3.0 | 5.0 | 0.00 | 0.00 | 0.00 | 89 | 1003.5 |
| 20260508235515 | 74 | 63 | 2.0 | 5.0 | 0.00 | 0.00 | 0.00 | 89 | 1003.4 |
| 20260508235414 | 74 | 68 | 2.0 | 5.0 | 0.00 | 0.00 | 0.00 | 89 | 1003.4 |
| 20260508235316 | 74 | 75 | 1.0 | 5.0 | 0.00 | 0.00 | 0.00 | 89 | 1003.4 |
| 20260508235213 | 74 | 75 | 2.0 | 5.0 | 0.00 | 0.00 | 0.00 | 89 | 1003.5 |
| 20260508235114 | 74 | 72 | 2.0 | 5.0 | 0.00 | 0.00 | 0.00 | 89 | 1003.4 |
| 20260508235013 | 74 | 75 | 2.0 | 5.0 | 0.00 | 0.00 | 0.00 | 89 | 1003.4 |
| 20260508234915 | 74 | 92 | 0.0 | 5.0 | 0.00 | 0.00 | 0.00 | 89 | 1003.3 |
| 20260508234814 | 74 | 113 | 1.0 | 5.0 | 0.00 | 0.00 | 0.00 | 89 | 1003.4 |
| 20260508234715 | 74 | 113 | 2.0 | 5.0 | 0.00 | 0.00 | 0.00 | 89 | 1003.4 |
| 20260508234614 | 74 | 79 | 3.0 | 5.0 | 0.00 | 0.00 | 0.00 | 89 | 1003.4 |
| 20260508234514 | 74 | 92 | 2.0 | 5.0 | 0.00 | 0.00 | 0.00 | 89 | 1003.4 |
| 20260508234412 | 74 | 87 | 2.0 | 5.0 | 0.00 | 0.00 | 0.00 | 89 | 1003.3 |
| 20260508234313 | 74 | 86 | 2.0 | 6.0 | 0.00 | 0.00 | 0.00 | 89 | 1003.4 |
| 20260508234213 | 74 | 89 | 1.0 | 6.0 | 0.00 | 0.00 | 0.00 | 89 | 1003.4 |
| 20260508234115 | 74 | 89 | 2.0 | 9.0 | 0.00 | 0.00 | 0.00 | 89 | 1003.5 |
| 20260508234012 | 74 | 89 | 3.0 | 9.0 | 0.00 | 0.00 | 0.00 | 89 | 1003.4 |
| 20260508233914 | 74 | 85 | 2.0 | 9.0 | 0.00 | 0.00 | 0.00 | 89 | 1003.3 |
| 20260508233812 | 74 | 103 | 2.0 | 9.0 | 0.00 | 0.00 | 0.00 | 89 | 1003.3 |
| 20260508233714 | 74 | 104 | 3.0 | 9.0 | 0.00 | 0.00 | 0.00 | 88 | 1003.2 |
| 20260508233614 | 74 | 79 | 2.0 | 9.0 | 0.00 | 0.00 | 0.00 | 88 | 1003.3 |
| 20260508233515 | 74 | 78 | 2.0 | 9.0 | 0.00 | 0.00 | 0.00 | 88 | 1003.1 |
| 20260508233414 | 74 | 78 | 4.0 | 9.0 | 0.00 | 0.00 | 0.00 | 88 | 1003.3 |
| 20260508233313 | 74 | 94 | 4.0 | 9.0 | 0.00 | 0.00 | 0.00 | 88 | 1003.3 |
| 20260508233213 | 74 | 79 | 4.0 | 9.0 | 0.00 | 0.00 | 0.00 | 88 | 1003.3 |
| 20260508233114 | 74 | 94 | 4.0 | 7.0 | 0.00 | 0.00 | 0.00 | 88 | 1003.3 |
| 20260508233014 | 74 | 76 | 3.0 | 7.0 | 0.00 | 0.00 | 0.00 | 88 | 1003.3 |
| 20260508232912 | 74 | 96 | 2.0 | 7.0 | 0.00 | 0.00 | 0.00 | 88 | 1003.3 |
| 20260508232812 | 74 | 97 | 3.0 | 7.0 | 0.00 | 0.00 | 0.00 | 88 | 1003.3 |
| 20260508232712 | 74 | 80 | 4.0 | 7.0 | 0.00 | 0.00 | 0.00 | 88 | 1003.3 |
| 20260508232613 | 74 | 90 | 4.0 | 7.0 | 0.00 | 0.00 | 0.00 | 88 | 1003.4 |
| 20260508232513 | 74 | 89 | 4.0 | 7.0 | 0.00 | 0.00 | 0.00 | 87 | 1003.3 |
| 20260508232413 | 74 | 102 | 4.0 | 7.0 | 0.00 | 0.00 | 0.00 | 87 | 1003.4 |
| 20260508232314 | 74 | 93 | 2.0 | 7.0 | 0.00 | 0.00 | 0.00 | 88 | 1003.4 |
| 20260508232214 | 74 | 80 | 2.0 | 7.0 | 0.00 | 0.00 | 0.00 | 88 | 1003.5 |
| 20260508232112 | 74 | 80 | 3.0 | 7.0 | 0.00 | 0.00 | 0.00 | 87 | 1003.5 |
| 20260508232015 | 74 | 69 | 4.0 | 7.0 | 0.00 | 0.00 | 0.00 | 87 | 1003.5 |
| 20260508231912 | 74 | 92 | 5.0 | 7.0 | 0.00 | 0.00 | 0.00 | 87 | 1003.6 |
| 20260508231813 | 74 | 92 | 5.0 | 7.0 | 0.00 | 0.00 | 0.00 | 87 | 1003.6 |
| 20260508231712 | 74 | 96 | 5.0 | 7.0 | 0.00 | 0.00 | 0.00 | 87 | 1003.5 |
| 20260508231614 | 74 | 87 | 4.0 | 7.0 | 0.00 | 0.00 | 0.00 | 87 | 1003.6 |
| 20260508231513 | 74 | 94 | 4.0 | 7.0 | 0.00 | 0.00 | 0.00 | 87 | 1003.6 |
| 20260508231412 | 74 | 96 | 4.0 | 7.0 | 0.00 | 0.00 | 0.00 | 87 | 1003.6 |
| 20260508231313 | 74 | 85 | 4.0 | 7.0 | 0.00 | 0.00 | 0.00 | 88 | 1003.6 |
| 20260508231212 | 74 | 80 | 4.0 | 7.0 | 0.00 | 0.00 | 0.00 | 88 | 1003.6 |
| 20260508231113 | 74 | 110 | 4.0 | 7.0 | 0.00 | 0.00 | 0.00 | 88 | 1003.6 |
| 20260508231013 | 74 | 104 | 3.0 | 6.0 | 0.00 | 0.00 | 0.00 | 88 | 1003.5 |
| 20260508230914 | 74 | 104 | 2.0 | 6.0 | 0.00 | 0.00 | 0.00 | 88 | 1003.5 |
| 20260508230813 | 74 | 106 | 2.0 | 6.0 | 0.00 | 0.00 | 0.00 | 88 | 1003.6 |
| 20260508230712 | 74 | 96 | 3.0 | 6.0 | 0.00 | 0.00 | 0.00 | 87 | 1003.6 |
| 20260508230613 | 74 | 90 | 2.0 | 6.0 | 0.00 | 0.00 | 0.00 | 87 | 1003.6 |
| 20260508230513 | 74 | 97 | 2.0 | 6.0 | 0.00 | 0.00 | 0.00 | 87 | 1003.6 |
| 20260508230414 | 74 | 97 | 4.0 | 6.0 | 0.00 | 0.00 | 0.00 | 87 | 1003.6 |
| 20260508230312 | 74 | 65 | 4.0 | 6.0 | 0.00 | 0.00 | 0.00 | 87 | 1003.7 |
| 20260508230214 | 74 | 92 | 3.0 | 9.0 | 0.00 | 0.00 | 0.00 | 87 | 1003.6 |
| 20260508230114 | 74 | 93 | 2.0 | 9.0 | 0.00 | 0.00 | 0.00 | 87 | 1003.5 |
| 20260508230013 | 74 | 83 | 2.0 | 9.0 | 0.00 | 0.00 | 0.00 | 87 | 1003.5 |
| 20260508225913 | 74 | 83 | 3.0 | 9.0 | 0.00 | 0.00 | 0.00 | 87 | 1003.6 |
| 20260508225813 | 74 | 79 | 3.0 | 9.0 | 0.00 | 0.00 | 0.00 | 87 | 1003.5 |
| 20260508225712 | 74 | 65 | 2.0 | 9.0 | 0.00 | 0.00 | 0.00 | 87 | 1003.5 |
| 20260508225613 | 74 | 96 | 2.0 | 9.0 | 0.00 | 0.00 | 0.00 | 87 | 1003.5 |
| 20260508225513 | 74 | 100 | 4.0 | 9.0 | 0.00 | 0.00 | 0.00 | 87 | 1003.6 |
| 20260508225414 | 74 | 96 | 6.0 | 9.0 | 0.00 | 0.00 | 0.00 | 87 | 1003.6 |
| 20260508225311 | 74 | 86 | 6.0 | 9.0 | 0.00 | 0.00 | 0.00 | 87 | 1003.5 |
| 20260508225212 | 74 | 104 | 5.0 | 7.0 | 0.00 | 0.00 | 0.00 | 87 | 1003.6 |
| 20260508225113 | 74 | 79 | 5.0 | 7.0 | 0.00 | 0.00 | 0.00 | 87 | 1003.5 |
| 20260508225012 | 74 | 118 | 4.0 | 7.0 | 0.00 | 0.00 | 0.00 | 87 | 1003.5 |
| 20260508224913 | 74 | 99 | 4.0 | 7.0 | 0.00 | 0.00 | 0.00 | 87 | 1003.5 |
| 20260508224811 | 74 | 94 | 5.0 | 7.0 | 0.00 | 0.00 | 0.00 | 87 | 1003.4 |
| 20260508224713 | 74 | 96 | 3.0 | 7.0 | 0.00 | 0.00 | 0.00 | 87 | 1003.4 |
| 20260508224613 | 74 | 100 | 3.0 | 7.0 | 0.00 | 0.00 | 0.00 | 87 | 1003.4 |
| 20260508224513 | 74 | 86 | 3.0 | 7.0 | 0.00 | 0.00 | 0.00 | 87 | 1003.4 |
| 20260508224412 | 74 | 69 | 3.0 | 7.0 | 0.00 | 0.00 | 0.00 | 87 | 1003.4 |
| 20260508224311 | 74 | 62 | 3.0 | 7.0 | 0.00 | 0.00 | 0.00 | 87 | 1003.4 |
| 20260508224213 | 74 | 76 | 2.0 | 7.0 | 0.00 | 0.00 | 0.00 | 87 | 1003.3 |
| 20260508224112 | 74 | 76 | 3.0 | 7.0 | 0.00 | 0.00 | 0.00 | 87 | 1003.4 |
| 20260508224012 | 74 | 82 | 5.0 | 7.0 | 0.00 | 0.00 | 0.00 | 87 | 1003.4 |
| 20260508223912 | 75 | 82 | 5.0 | 7.0 | 0.00 | 0.00 | 0.00 | 87 | 1003.4 |
| 20260508223812 | 75 | 104 | 4.0 | 6.0 | 0.00 | 0.00 | 0.00 | 87 | 1003.4 |
| 20260508223711 | 75 | 100 | 4.0 | 7.0 | 0.00 | 0.00 | 0.00 | 87 | 1003.4 |
| 20260508223611 | 75 | 92 | 4.0 | 7.0 | 0.00 | 0.00 | 0.00 | 87 | 1003.4 |
| 20260508223513 | 75 | 96 | 4.0 | 9.0 | 0.00 | 0.00 | 0.00 | 87 | 1003.4 |
| 20260508223411 | 75 | 63 | 4.0 | 9.0 | 0.00 | 0.00 | 0.00 | 87 | 1003.4 |
| 20260508223312 | 75 | 80 | 3.0 | 9.0 | 0.00 | 0.00 | 0.00 | 87 | 1003.4 |
| 20260508223213 | 75 | 66 | 3.0 | 9.0 | 0.00 | 0.00 | 0.00 | 87 | 1003.4 |
| 20260508223114 | 75 | 69 | 2.0 | 9.0 | 0.00 | 0.00 | 0.00 | 87 | 1003.4 |
| 20260508223011 | 75 | 42 | 3.0 | 9.0 | 0.00 | 0.00 | 0.00 | 86 | 1003.3 |
| 20260508222911 | 75 | 94 | 5.0 | 9.0 | 0.00 | 0.00 | 0.00 | 86 | 1003.4 |
| 20260508222813 | 75 | 94 | 5.0 | 9.0 | 0.00 | 0.00 | 0.00 | 86 | 1003.4 |
| 20260508222711 | 75 | 80 | 5.0 | 9.0 | 0.00 | 0.00 | 0.00 | 86 | 1003.5 |
| 20260508222612 | 75 | 83 | 4.0 | 9.0 | 0.00 | 0.00 | 0.00 | 86 | 1003.4 |
| 20260508222511 | 75 | 104 | 3.0 | 6.0 | 0.00 | 0.00 | 0.00 | 86 | 1003.5 |
| 20260508222411 | 75 | 96 | 4.0 | 6.0 | 0.00 | 0.00 | 0.00 | 86 | 1003.4 |
| 20260508222312 | 75 | 39 | 3.0 | 9.0 | 0.00 | 0.00 | 0.00 | 86 | 1003.4 |
| 20260508222212 | 75 | 8 | 2.0 | 9.0 | 0.00 | 0.00 | 0.00 | 87 | 1003.4 |
| 20260508222112 | 75 | 75 | 2.0 | 9.0 | 0.00 | 0.00 | 0.00 | 86 | 1003.4 |
| 20260508222011 | 75 | 56 | 3.0 | 9.0 | 0.00 | 0.00 | 0.00 | 86 | 1003.4 |
| 20260508221911 | 75 | 58 | 3.0 | 9.0 | 0.00 | 0.00 | 0.00 | 86 | 1003.4 |
| 20260508221811 | 75 | 79 | 2.0 | 9.0 | 0.00 | 0.00 | 0.00 | 86 | 1003.4 |
| 20260508221711 | 75 | 78 | 3.0 | 9.0 | 0.00 | 0.00 | 0.00 | 86 | 1003.3 |
| 20260508221611 | 75 | 83 | 4.0 | 9.0 | 0.00 | 0.00 | 0.00 | 86 | 1003.4 |
| 20260508221511 | 75 | 89 | 5.0 | 9.0 | 0.00 | 0.00 | 0.00 | 86 | 1003.4 |
| 20260508221412 | 75 | 78 | 4.0 | 9.0 | 0.00 | 0.00 | 0.00 | 86 | 1003.4 |